GFSMW_250_spd_057.txt.gz
Wind_Speed
37 35 34 30 34 35 43 46 48 52 53 53 54 56 54 59 61 62 59 63 66 69 68 69 68 68 68 67 67 67 68 70 74 78 81 81 84 85 88 90 92 95 91
32 33 31 32 33 35 35 37 39 42 50 52 52 54 52 53 56 60 61 64 64 63 64 65 65 65 66 68 68 71 74 77 79 81 82 83 85 88 92 96 97 96 91
38 40 37 35 33 32 33 40 40 41 43 47 49 53 57 59 61 61 59 59 59 60 63 64 65 68 68 68 71 74 77 80 82 82 82 83 85 90 96 98 96 93 91
43 41 40 37 39 44 44 41 42 43 45 51 55 56 58 58 54 54 55 55 58 62 65 67 70 70 71 74 76 75 78 78 78 82 86 90 93 97 96 94 93 93 95
39 38 42 46 46 47 41 41 44 45 47 49 51 51 50 49 49 50 52 56 62 66 69 70 70 70 72 76 80 79 79 80 83 86 89 91 99 100 96 90 91 94 101
39 42 43 42 42 43 42 43 44 44 42 39 41 43 46 47 49 53 57 61 66 69 72 73 73 72 75 77 79 79 81 86 90 92 94 97 103 99 94 93 97 102 104
38 40 38 37 36 39 42 38 36 33 33 34 39 45 48 50 53 56 59 62 64 64 66 69 73 73 72 73 76 80 86 88 92 95 98 102 104 96 97 101 106 109 109
35 35 34 37 38 36 33 26 30 31 34 38 46 50 52 55 56 60 61 61 64 66 68 71 73 73 75 77 83 88 89 92 95 98 103 104 100 102 108 111 113 112 110
36 39 37 36 34 33 31 28 31 34 41 48 53 54 54 57 58 59 61 64 66 70 72 74 72 74 78 84 86 91 93 96 101 104 102 103 108 111 112 113 111 111 109
36 34 35 34 34 32 29 31 36 44 50 51 52 52 55 56 58 61 64 68 69 74 73 75 78 79 82 87 92 96 100 103 104 103 107 111 111 111 113 111 112 113 112
33 33 32 32 30 30 31 36 41 45 48 48 50 52 54 57 60 63 67 70 73 70 74 77 82 86 90 95 99 103 106 106 104 109 110 110 110 111 112 114 114 111 107
34 35 34 34 30 33 36 40 42 45 46 50 52 56 56 61 63 65 68 68 71 75 78 81 85 90 95 100 102 108 106 105 110 111 110 112 112 113 115 116 114 108 102
37 36 34 30 33 37 39 43 44 47 50 53 56 60 64 66 67 67 68 72 75 80 83 87 92 97 100 102 107 106 106 110 109 112 114 113 114 117 116 113 108 104 95
37 29 28 31 36 38 37 44 46 52 56 58 62 65 65 67 67 70 75 80 84 88 89 93 97 100 102 106 107 106 110 112 115 116 115 115 118 118 113 107 101 95 89
29 26 30 34 38 41 43 48 51 54 58 61 64 66 67 67 71 77 82 86 89 92 95 99 101 103 107 110 107 111 116 118 118 117 116 117 115 112 109 101 93 89 85
32 33 35 38 43 45 47 51 56 59 62 64 66 68 69 73 77 83 87 91 92 95 98 101 104 106 112 109 112 118 120 118 117 117 117 114 111 108 100 93 89 83 79
35 38 41 43 46 48 52 56 59 61 63 67 70 72 75 79 83 88 92 93 95 99 102 105 108 112 111 113 119 121 119 118 118 117 115 111 108 100 93 88 82 75 72
39 42 44 47 50 53 55 57 60 63 67 71 74 77 80 84 88 93 92 96 100 102 106 110 113 111 114 120 122 120 118 118 118 115 112 108 101 94 87 80 75 70 66
42 45 48 51 54 55 58 62 65 68 72 75 78 81 85 89 92 94 98 102 103 107 109 113 113 116 122 122 119 117 117 117 116 113 107 100 95 88 81 76 71 67 61
46 49 52 54 56 59 61 64 67 72 75 78 81 86 90 92 95 99 102 104 107 109 112 112 117 123 122 120 118 117 115 114 111 107 100 93 87 81 76 71 65 62 58
50 52 54 57 59 61 65 68 72 75 78 82 86 90 93 96 99 103 105 108 110 112 112 116 121 120 121 119 119 117 114 111 106 100 93 86 81 76 70 65 62 58 55
54 56 58 60 63 66 69 73 75 79 82 87 91 94 96 100 103 106 108 111 111 111 118 120 119 120 119 119 118 115 110 104 98 94 87 80 74 70 67 61 58 55 53
59 60 62 65 67 70 74 76 79 83 88 92 95 96 99 102 106 107 110 110 112 117 120 120 118 117 117 118 116 110 103 98 92 87 82 75 69 66 62 58 56 54 52
62 64 66 69 72 75 78 81 85 89 93 96 96 99 102 106 108 110 109 111 117 121 121 119 118 116 115 115 111 103 95 94 86 80 76 70 65 63 60 57 54 54 50
64 67 70 73 75 78 82 87 91 94 95 97 100 103 106 108 109 110 113 118 121 125 123 121 118 116 111 108 102 97 86 89 82 75 72 66 62 60 56 55 54 51 48
67 70 73 76 79 84 88 90 92 94 97 101 103 107 108 109 110 113 116 122 125 123 121 120 119 111 104 98 93 88 81 76 74 71 68 64 59 58 56 53 52 49 45

GFSMW_250_spd_060.txt.gz
Wind_Speed
29 30 26 27 28 30 32 35 38 44 43 45 49 52 55 62 58 63 61 64 65 66 65 70 70 69 67 65 66 70 71 73 76 75 76 77 80 83 84 83 86 88 90
24 26 31 36 35 33 31 32 36 40 48 46 49 44 47 57 63 56 63 68 66 65 65 65 68 66 65 67 70 73 75 77 77 77 79 80 84 85 84 87 91 95 95
28 29 29 31 39 31 32 38 36 36 38 38 43 47 50 48 58 64 62 60 64 65 67 65 62 62 66 71 74 77 80 81 81 80 82 84 84 82 88 92 94 96 98
29 33 35 36 37 41 39 38 38 38 40 44 47 49 52 50 53 57 60 60 62 60 57 58 61 65 69 72 72 69 69 73 76 78 81 81 86 87 88 92 96 98 102
40 38 40 43 44 44 45 42 44 49 51 51 48 52 54 54 53 54 56 54 54 55 59 61 64 68 71 72 72 72 75 77 76 77 81 86 89 93 94 97 99 101 101
38 40 42 45 47 49 48 46 46 46 46 47 48 46 44 48 50 49 49 53 58 60 63 66 69 72 73 74 74 74 72 75 77 81 84 87 91 96 100 103 101 98 103
38 39 39 37 38 38 38 38 38 40 42 37 34 36 40 46 49 49 54 60 62 64 67 70 70 73 74 75 75 75 75 79 82 85 90 94 99 101 106 103 102 106 109
38 40 39 34 36 37 38 38 41 38 34 31 33 39 42 51 53 57 62 66 64 66 68 70 72 69 69 72 77 81 83 84 86 90 95 99 102 108 106 105 110 111 109
37 36 38 38 37 39 41 39 35 31 30 33 39 44 49 52 57 63 63 63 63 67 70 68 67 69 72 75 80 84 86 88 92 96 100 102 108 109 110 113 115 113 109
37 38 40 42 42 40 36 35 36 31 34 40 43 47 53 57 59 61 62 64 67 69 67 66 70 74 79 84 86 87 90 93 97 101 103 108 110 109 113 115 114 111 109
38 40 38 36 35 34 36 36 35 33 37 42 45 50 54 54 58 61 64 67 67 69 68 69 74 79 83 85 86 91 96 99 103 106 110 111 110 114 115 115 113 112 111
35 35 36 36 34 34 35 35 35 34 40 45 50 53 54 57 60 62 64 67 70 74 74 77 81 85 85 88 92 96 100 103 106 110 110 112 115 117 116 114 114 113 110
35 37 37 35 33 32 32 30 31 35 39 47 51 51 56 61 63 64 68 71 74 76 78 82 84 88 89 94 97 101 105 107 110 111 113 116 117 117 116 115 114 110 106
35 36 36 32 30 30 29 32 36 41 44 48 52 56 60 63 68 70 74 75 77 80 81 86 87 90 95 99 103 105 107 110 110 113 116 117 118 117 117 116 111 106 101
39 38 32 29 29 29 32 36 41 46 50 51 56 59 62 67 73 77 78 80 81 83 86 87 92 96 101 104 105 107 111 110 114 118 119 117 117 118 117 114 107 100 93
36 34 32 28 30 33 37 41 46 50 53 57 59 63 67 71 74 77 80 82 83 85 88 94 97 102 104 107 108 111 109 113 118 120 119 118 118 116 113 108 100 92 86
33 33 33 34 36 39 43 47 50 54 58 61 64 68 72 73 76 79 80 82 86 89 94 97 101 104 108 110 111 111 113 118 121 120 118 118 116 113 108 100 93 87 80
33 35 37 40 43 45 48 51 54 58 61 64 67 69 71 75 77 79 82 86 90 95 97 101 104 107 111 110 111 115 117 119 121 118 117 117 114 108 100 93 88 82 74
35 38 42 45 47 49 52 56 59 60 63 65 68 71 75 77 79 82 87 91 95 97 101 103 106 109 109 112 116 119 120 119 118 118 117 114 107 100 94 88 82 77 70
40 42 45 47 50 53 56 58 61 63 66 69 72 74 77 79 82 87 92 95 97 100 101 106 108 107 110 115 119 123 120 117 116 117 114 107 99 96 89 83 78 72 65
44 45 48 50 53 56 59 61 64 66 68 71 74 76 79 83 88 92 94 96 99 101 104 105 105 110 114 116 122 124 120 118 115 111 106 102 97 88 84 77 73 67 62
49 51 53 55 58 61 63 65 66 69 71 74 76 80 84 87 89 92 96 99 101 104 105 104 107 111 115 121 123 123 120 116 109 104 100 96 93 84 79 73 69 65 59
52 54 57 59 61 62 64 66 69 72 74 76 80 83 86 89 92 95 100 102 105 106 105 108 110 110 114 119 123 123 120 114 105 99 93 91 89 78 75 70 66 62 57
56 58 59 60 62 65 68 70 72 74 77 80 84 87 90 93 97 102 102 105 107 106 110 111 112 114 116 119 120 119 116 109 101 93 87 84 82 75 71 67 63 59 56
58 59 61 64 67 69 70 72 75 78 81 86 90 92 95 98 102 104 106 107 108 113 112 114 117 119 117 115 116 110 103 99 96 89 82 77 76 73 69 65 61 57 54
63 64 65 68 70 73 76 78 81 85 89 92 93 95 99 102 105 107 105 108 112 113 116 119 121 120 121 114 106 102 97 93 89 83 79 75 70 67 65 61 58 53 51

GFSMW_250_spd_063.txt.gz
Wind_Speed
23 22 31 28 24 22 20 22 25 28 30 32 35 37 40 40 44 52 54 60 63 63 68 68 69 74 72 65 69 68 72 65 67 69 72 74 75 76 78 79 80 81 82
32 28 26 29 32 27 27 28 29 30 33 34 41 40 48 50 47 44 45 46 51 54 61 66 69 67 67 67 67 66 66 67 69 72 73 76 77 78 79 79 79 81 85
25 23 24 23 21 27 30 32 31 31 36 38 42 43 43 46 46 47 49 52 56 59 60 58 60 63 64 65 64 65 68 70 73 75 78 80 80 79 80 83 85 87 90
28 27 31 28 31 29 29 32 37 38 39 41 45 45 45 50 54 54 55 56 55 58 57 59 59 59 61 64 67 70 73 74 76 78 79 78 80 81 82 86 91 92 94
29 29 29 31 32 34 37 37 42 44 45 45 48 48 50 49 50 52 54 53 52 53 54 53 59 63 66 69 71 74 75 78 79 76 75 80 85 89 89 88 90 92 97
35 35 36 38 39 38 40 42 43 43 45 47 47 45 44 42 45 48 46 45 48 52 55 60 66 70 72 73 73 75 77 75 73 76 82 88 91 90 91 91 95 98 103
27 30 32 36 38 38 35 34 35 38 39 40 41 43 43 39 39 42 43 47 52 56 60 66 70 71 72 75 76 76 74 73 76 83 89 92 91 94 97 99 101 104 108
28 28 28 29 31 33 34 34 33 35 39 40 42 42 40 37 39 43 47 55 58 60 66 69 71 75 74 77 76 74 73 80 84 89 91 92 96 100 102 105 108 110 113
25 25 29 31 32 34 36 38 38 39 40 40 40 38 40 40 45 52 56 57 61 64 66 70 73 76 75 71 73 76 79 83 89 90 93 97 100 105 108 110 113 115 116
32 31 33 32 34 37 38 41 43 40 37 37 37 37 39 48 53 55 57 61 63 64 70 74 74 75 73 77 77 82 85 88 89 93 97 102 105 110 112 115 116 119 119
34 36 36 38 39 39 40 37 36 37 36 35 37 38 42 47 53 57 62 63 66 66 74 78 77 78 81 83 85 86 89 92 95 98 103 106 110 114 115 116 119 120 120
40 40 41 41 40 36 34 36 37 37 38 36 34 39 44 50 56 60 61 63 67 72 76 76 78 80 84 87 89 89 92 95 99 104 107 111 115 115 117 120 121 121 118
40 42 40 37 36 36 36 37 38 39 36 34 38 41 47 53 56 60 65 69 73 74 78 83 86 86 85 87 89 93 96 100 104 106 110 115 115 118 120 122 122 118 115
37 40 38 38 38 37 36 39 40 36 35 39 43 47 51 56 60 63 66 70 74 78 80 83 87 89 90 91 94 98 101 104 107 110 115 115 118 121 122 123 121 117 114
39 40 40 37 38 39 37 35 34 37 40 45 48 50 55 59 62 64 68 70 75 80 83 85 89 91 92 95 97 100 102 105 110 114 114 117 121 122 123 122 119 115 109
35 36 38 38 39 38 35 38 41 43 45 48 51 54 58 61 64 66 70 74 79 81 85 86 88 92 95 97 100 104 106 109 112 113 115 120 121 124 123 120 117 111 103
38 38 38 37 38 37 37 39 42 46 49 51 54 58 61 64 67 71 74 76 80 82 85 87 87 91 96 99 103 107 109 111 112 114 119 120 123 124 122 117 112 105 96
39 39 39 39 39 40 41 44 47 50 52 55 59 62 65 68 71 73 75 79 81 83 85 86 90 94 100 103 108 111 112 111 113 118 120 121 122 123 117 111 105 97 89
41 39 39 41 43 44 46 49 52 55 57 60 62 65 67 70 73 75 78 80 82 85 86 89 94 98 103 108 111 113 113 113 118 120 121 123 121 118 109 101 96 91 83
44 45 44 42 44 47 50 52 54 57 60 62 64 67 70 73 75 77 79 82 84 87 90 95 99 101 106 110 114 115 115 118 120 121 121 122 119 110 103 96 92 85 78
47 48 49 50 50 51 53 56 58 60 63 66 68 70 72 75 77 78 81 84 88 91 94 98 102 106 109 112 113 115 120 123 122 120 118 116 114 106 97 91 85 79 74
49 52 53 54 54 55 56 59 61 63 66 67 69 72 75 77 79 82 87 90 92 92 97 101 104 107 111 113 115 120 123 125 124 119 117 111 106 100 92 85 80 75 72
52 53 55 58 58 59 61 62 64 65 68 70 73 76 78 80 83 87 92 93 93 98 103 102 102 106 109 113 117 118 120 122 123 120 112 105 97 92 86 80 76 73 69
54 56 58 59 62 65 67 69 70 71 73 75 78 80 83 85 89 92 94 94 100 105 106 104 106 105 112 116 117 117 117 117 114 110 106 97 91 86 81 76 72 69 66
57 60 62 64 66 68 69 71 74 76 79 82 84 86 88 91 93 95 96 102 106 107 106 109 109 111 116 116 114 114 112 111 105 100 95 90 85 80 76 73 71 67 63
59 62 65 68 70 72 74 77 80 82 84 85 86 88 90 93 94 97 103 108 108 107 111 112 115 119 117 113 113 112 110 107 100 93 87 84 80 76 71 69 66 62 59

GFSMW_250_spd_069.txt.gz
Wind_Speed
18 19 21 27 36 37 45 45 49 46 43 43 54 50 46 51 59 64 63 60 61 60 60 56 55 59 58 60 59 60 62 66 68 68 70 68 67 70 70 71 75 77 78
24 20 28 25 32 32 34 35 43 43 40 40 36 37 38 38 40 43 49 52 51 55 53 53 54 56 58 63 63 66 69 68 70 70 68 65 64 65 73 78 81 81 83
25 30 29 29 33 27 28 29 29 32 35 33 36 36 38 42 41 42 44 46 47 49 52 55 56 60 63 66 68 69 68 68 67 67 66 66 71 74 75 74 80 83 84
25 23 35 35 33 35 35 33 35 34 37 39 37 40 39 38 40 44 47 50 52 53 57 58 60 61 63 64 65 67 67 65 60 66 71 74 78 82 82 85 84 82 81
35 33 36 35 41 39 33 32 32 31 33 35 36 37 43 44 46 47 50 54 57 60 62 62 59 59 62 63 64 63 61 62 65 71 74 80 83 85 86 89 95 93 91
33 36 33 36 39 39 35 37 41 43 42 45 45 45 48 50 53 52 56 58 59 58 56 57 61 62 61 59 60 61 62 67 74 77 79 81 83 85 86 89 90 90 92
39 37 39 41 41 40 40 41 44 45 48 48 48 51 54 57 56 53 53 52 53 55 56 58 61 59 58 59 62 66 72 77 80 82 81 85 87 91 92 93 92 92 96
39 37 38 39 42 42 45 48 48 47 51 50 54 53 49 46 45 50 51 53 55 58 59 56 55 59 64 66 69 73 76 80 84 81 84 89 91 92 92 93 95 96 99
38 44 45 45 45 44 45 46 46 46 47 46 44 44 45 46 48 52 54 57 58 57 53 56 58 62 65 65 73 78 81 83 83 86 87 92 94 93 95 98 100 102 101
31 36 40 42 42 42 42 42 41 43 42 45 43 45 49 50 52 54 55 55 54 55 57 60 62 69 71 72 75 79 82 82 87 90 93 95 96 98 100 101 104 107 109
35 33 33 33 36 38 40 41 42 43 44 45 47 49 51 53 52 52 52 55 55 57 59 65 68 71 74 74 79 82 83 86 91 93 95 97 100 102 104 107 109 112 116
33 35 36 39 40 41 43 44 45 47 47 47 49 49 48 50 51 52 53 54 56 61 64 66 67 69 73 76 80 85 87 91 94 97 98 100 103 104 108 110 113 117 119
39 39 39 41 42 43 42 41 43 44 44 43 47 48 52 53 54 55 56 57 59 61 66 68 66 68 78 79 85 86 92 94 96 98 101 104 105 108 110 113 117 119 120
38 41 43 44 42 43 39 36 38 41 43 45 47 50 52 53 53 57 58 57 58 60 64 68 70 74 78 82 85 90 93 96 98 101 103 105 108 110 113 117 118 122 123
33 34 36 39 41 42 39 40 40 41 44 45 45 45 47 50 51 53 54 56 56 59 64 68 74 78 81 85 88 90 92 96 99 101 104 106 108 112 117 120 121 125 129
34 37 38 38 42 43 40 42 42 43 45 45 47 46 50 52 53 54 57 59 61 65 69 73 77 81 83 85 88 91 95 97 99 103 106 109 113 116 115 117 120 126 132
35 43 42 41 40 42 43 45 45 44 43 45 46 49 49 50 53 56 59 63 66 69 72 75 78 81 83 88 90 92 94 98 103 107 110 114 116 117 121 123 125 125 122
36 37 44 46 46 46 47 48 48 47 47 48 49 50 52 54 57 60 62 66 70 73 75 78 81 84 85 87 90 94 99 102 105 108 111 113 115 120 123 127 126 126 127
40 40 41 44 51 51 52 52 52 53 53 53 54 55 56 57 60 64 66 69 72 75 78 81 84 87 90 91 96 99 101 104 107 110 113 116 119 122 124 123 123 125 128
43 44 43 44 46 49 54 56 58 58 59 60 61 62 63 65 67 69 71 73 76 79 83 86 89 92 94 94 98 103 106 109 111 113 114 116 118 118 120 122 125 126 127
48 50 51 52 50 49 50 51 51 54 56 59 62 64 66 69 72 74 76 78 81 83 85 89 91 95 98 101 101 107 110 109 108 110 111 113 116 117 121 123 125 124 120
51 54 54 54 58 56 54 52 57 59 63 65 68 70 72 74 76 79 81 82 82 84 88 92 95 98 101 102 101 104 107 110 111 111 112 113 117 120 122 123 121 116 114
54 56 58 62 62 60 53 54 57 61 64 64 64 59 57 61 67 71 75 80 85 89 92 95 97 97 97 99 103 106 106 106 108 110 114 118 119 120 120 118 113 112 109
58 60 62 66 64 59 56 58 63 63 58 52 50 54 57 62 68 76 81 81 84 90 93 92 94 97 100 101 103 102 105 107 110 114 118 118 118 116 111 109 108 105 101
61 62 64 64 62 60 64 69 72 66 61 60 62 63 67 73 77 82 86 81 84 87 87 89 90 93 97 101 103 105 108 111 115 115 114 113 110 107 105 105 102 95 91
64 66 68 64 70 70 74 72 70 70 69 66 69 72 77 82 84 88 91 85 81 83 84 87 92 98 101 103 106 110 113 114 113 110 107 105 104 102 100 98 94 90 84

GFSMW_250_spd_072.txt.gz
Wind_Speed
20 24 28 36 47 50 50 48 47 48 50 53 50 50 57 57 58 57 54 59 60 63 66 69 69 68 66 70 67 64 63 64 64 65 69 71 76 77 76 74 74 71 69
25 24 27 29 33 39 45 47 51 50 53 52 49 55 52 54 58 57 53 55 59 61 56 56 58 61 60 62 65 65 65 67 70 70 73 73 70 70 70 70 71 72 78
20 21 22 24 28 34 37 40 48 53 55 52 55 54 51 45 48 48 47 45 46 48 52 54 53 55 56 61 63 64 67 70 72 71 72 73 72 69 66 66 72 79 81
23 20 19 22 23 24 30 33 41 46 54 53 47 51 50 46 47 49 48 45 46 49 53 55 58 60 59 60 66 70 71 71 67 73 73 71 69 67 71 76 77 81 84
21 23 29 29 32 33 30 35 34 38 36 40 39 41 47 47 45 44 46 50 54 57 57 59 61 62 64 69 73 70 67 69 71 68 68 68 70 73 77 85 89 90 89
32 27 31 33 37 40 41 41 43 39 37 38 42 44 44 47 48 50 51 57 60 59 57 61 63 67 70 72 66 67 70 73 70 69 69 71 74 79 81 86 92 91 94
39 39 34 36 35 39 40 41 42 48 44 46 47 50 52 52 54 56 58 60 63 65 65 68 68 64 64 65 68 71 70 70 70 70 73 74 77 82 87 87 88 91 96
42 45 43 46 49 48 45 42 44 47 49 49 50 51 54 57 59 58 59 61 60 62 61 60 62 63 65 69 68 66 64 73 75 78 79 81 84 86 88 89 92 97 99
33 47 52 49 50 49 49 50 53 53 53 54 55 57 57 55 54 55 53 51 55 58 61 62 65 67 67 65 62 67 70 80 78 81 88 89 89 90 92 95 99 101 104
32 32 37 43 50 52 51 53 52 52 52 53 53 51 51 51 49 50 46 47 57 60 62 64 65 65 66 67 63 64 64 72 85 90 96 92 92 95 99 102 105 109 110
38 36 38 37 37 37 37 42 43 43 46 48 50 51 50 50 49 51 53 60 60 61 62 61 63 65 67 69 73 75 79 87 93 90 89 95 96 99 104 106 108 110 113
32 38 38 37 37 43 44 42 46 45 45 49 52 54 54 50 51 51 55 57 58 62 64 65 66 66 66 72 76 80 83 85 88 91 94 98 101 104 106 108 110 113 114
18 29 40 43 43 42 43 46 46 49 46 38 40 44 45 48 50 55 58 60 64 66 66 66 65 66 66 69 73 78 82 83 87 91 96 99 103 104 106 108 109 112 115
31 25 27 33 39 41 43 46 48 45 41 37 40 40 40 47 54 58 58 56 56 57 57 60 59 61 64 67 69 72 78 84 88 93 96 98 101 103 106 109 112 115 117
32 34 30 28 35 34 39 41 43 43 40 41 41 41 43 49 54 52 52 54 55 56 56 57 60 62 66 69 74 79 84 87 89 92 95 98 101 105 108 111 113 118 122
32 34 32 29 33 35 42 46 45 45 42 40 40 45 50 51 54 56 56 56 56 56 58 60 62 65 68 72 76 79 83 86 90 93 97 101 104 108 111 115 116 119 120
38 35 35 32 29 31 34 40 46 48 49 51 52 54 55 57 57 59 60 60 61 62 64 65 67 69 71 76 80 83 86 91 94 96 100 104 109 113 114 116 114 114 119
41 41 39 38 38 37 38 38 39 41 46 51 53 54 57 59 61 63 65 66 68 68 70 73 75 77 78 82 86 89 91 93 98 102 104 105 108 110 110 109 113 113 115
44 44 43 45 44 44 44 46 48 47 49 49 51 52 54 57 60 63 66 69 70 71 72 73 74 76 80 84 88 92 93 96 99 103 105 104 104 107 111 111 111 111 114
49 49 48 49 48 50 51 51 54 54 56 59 53 54 57 60 64 66 68 69 71 71 72 75 75 75 74 80 88 92 97 98 100 102 103 104 104 104 110 113 114 113 117
50 51 52 52 53 55 54 55 59 60 61 57 55 55 56 59 63 64 66 67 65 65 68 70 72 76 80 86 92 96 97 99 99 96 96 98 105 109 110 113 116 117 115
53 54 57 59 59 60 57 58 59 62 61 57 57 62 67 70 62 60 62 62 65 70 72 75 81 85 90 91 96 97 96 96 95 94 97 101 105 108 112 115 117 116 113
55 58 60 62 62 63 60 60 59 64 62 59 63 70 74 68 63 62 65 65 72 77 81 84 89 90 96 92 90 90 93 93 96 99 102 104 107 110 113 116 116 112 110
58 61 63 64 65 65 65 64 67 68 63 66 75 76 74 71 69 67 68 71 77 80 82 87 91 88 88 90 96 95 96 97 101 103 105 107 110 113 114 112 111 111 110
63 63 67 68 67 68 69 69 72 70 71 78 78 76 73 72 70 70 74 76 80 81 83 81 84 89 97 102 101 98 101 103 106 108 110 113 113 112 110 109 110 109 105
66 67 71 72 71 72 73 73 75 76 79 77 76 74 71 70 70 73 78 82 85 89 86 86 91 99 103 102 104 108 108 110 112 113 113 113 109 106 106 105 104 103 99

GFSMW_250_spd_075.txt.gz
Wind_Speed
26 33 44 53 62 59 59 63 59 62 58 58 57 61 62 66 62 64 60 64 67 59 60 61 58 65 63 64 66 68 74 72 71 69 68 67 68 69 72 75 77 76 78
19 27 36 45 49 54 53 53 57 55 52 56 56 59 64 62 61 60 61 58 61 65 70 69 66 64 62 65 67 66 66 66 66 65 66 67 72 75 79 79 76 78 79
16 21 30 37 41 43 49 52 55 53 57 58 58 57 58 65 60 54 60 60 60 59 61 62 59 55 55 57 58 61 62 63 68 67 68 73 76 78 78 77 77 78 77
14 17 20 30 35 36 40 49 49 48 49 46 56 56 62 60 60 60 58 59 58 52 52 54 56 55 57 60 62 64 66 65 68 72 74 77 79 76 76 79 78 76 77
21 19 20 20 23 27 36 43 39 37 44 52 55 57 58 61 60 58 51 56 56 55 58 55 57 61 63 64 65 64 66 70 72 73 76 76 78 78 79 75 76 74 76
18 26 27 22 25 30 28 29 37 39 39 44 48 48 46 46 51 56 59 57 57 59 59 60 63 63 67 70 70 71 74 78 76 74 77 81 83 80 76 73 79 83 84
26 27 32 30 32 36 33 35 37 38 38 41 45 46 48 52 51 52 56 59 60 63 66 69 72 72 72 73 71 70 71 70 73 76 77 70 80 81 81 80 80 82 87
39 36 38 37 36 40 39 39 41 45 47 50 50 51 55 56 54 57 60 62 65 68 72 72 69 69 70 67 66 68 70 72 73 69 76 77 81 86 87 86 88 89 92
24 29 48 45 45 46 41 40 44 46 49 53 55 54 54 59 59 63 66 66 67 66 63 65 65 64 66 65 70 71 72 72 74 77 77 81 85 89 93 98 100 102 100
19 24 29 33 46 50 52 53 51 54 55 53 54 57 57 54 54 52 53 54 55 56 57 61 65 68 70 73 73 72 72 73 76 78 82 85 89 93 96 100 102 104 101
23 22 18 29 32 33 40 45 42 39 40 43 39 42 39 38 41 43 46 51 48 56 63 69 72 72 71 70 70 73 74 74 75 77 79 84 86 91 95 98 101 104 105
23 25 19 16 28 30 35 36 37 31 37 36 37 45 43 38 18 40 41 49 52 55 63 69 69 69 71 74 77 76 76 75 77 77 78 80 83 87 89 92 99 105 108
24 26 24 21 13 21 35 38 39 41 42 43 42 49 37 40 33 39 44 57 58 67 69 71 69 66 67 70 69 70 73 73 74 74 76 80 84 89 93 98 101 105 107
27 25 25 23 17 16 18 26 35 41 46 49 49 50 44 48 48 55 60 67 70 74 71 69 70 68 68 69 69 71 72 73 75 77 80 84 87 91 95 99 103 106 109
31 28 26 28 29 23 20 20 19 22 33 39 42 43 45 54 56 60 65 67 64 67 67 69 69 69 68 69 71 72 73 75 78 81 84 87 90 93 97 101 105 108 108
36 34 32 26 32 37 34 29 30 30 29 29 30 39 46 45 54 59 64 65 66 66 67 70 71 71 72 75 76 77 78 80 82 84 86 89 92 90 89 96 101 101 104
38 36 36 35 34 36 37 37 35 33 35 37 37 38 39 39 43 51 56 61 64 66 68 70 72 72 74 74 76 78 79 82 84 85 85 85 89 94 95 100 101 104 107
43 39 40 40 39 38 39 39 41 41 40 40 40 41 43 47 49 50 50 54 59 64 67 71 73 75 77 79 82 84 84 83 85 82 84 91 95 97 96 96 97 100 103
41 42 43 46 44 44 42 44 48 51 51 50 49 49 49 50 52 51 47 50 57 63 71 68 67 68 71 74 77 78 81 83 86 90 94 95 92 90 96 95 95 96 100
44 44 46 50 48 47 47 50 52 55 54 54 53 54 52 54 57 56 51 59 65 69 69 66 65 64 66 71 75 80 84 87 89 93 96 97 96 101 102 103 101 101 102
50 50 49 52 53 49 50 52 57 58 58 59 59 59 59 62 63 59 60 69 71 73 71 67 66 66 69 72 76 79 82 85 89 91 91 94 96 102 105 106 106 104 104
53 53 54 56 55 56 54 58 60 63 65 64 65 66 65 66 68 68 70 74 72 73 70 69 70 73 74 77 81 85 88 92 93 89 92 98 104 105 107 111 111 111 109
57 58 59 60 62 60 57 60 64 66 69 68 69 71 71 73 72 75 76 76 74 70 70 73 73 75 77 81 87 91 93 96 93 95 100 105 108 111 114 115 114 111 110
60 62 65 62 65 64 62 64 66 70 74 76 74 76 77 77 79 81 83 78 75 72 71 75 79 81 85 89 93 96 92 95 97 102 105 109 113 114 114 114 113 112 112
63 64 67 68 70 67 67 70 71 75 79 81 81 82 83 84 87 89 88 82 80 79 80 83 85 87 89 91 91 90 97 101 105 109 111 112 114 114 114 114 115 115 113
68 69 70 71 72 72 73 74 77 79 83 83 86 86 87 91 93 94 87 83 84 84 85 87 88 90 92 99 103 105 111 112 112 114 113 114 114 113 113 112 113 112 107

GFSMW_250_spd_081.txt.gz
Wind_Speed
54 67 58 57 62 60 65 60 63 64 61 59 58 70 64 67 61 61 61 64 69 71 73 77 70 73 74 70 64 64 65 67 72 72 71 71 71 71 71 69 70 71 72
33 55 66 58 72 73 61 68 56 61 65 65 63 66 74 74 72 70 72 70 67 68 71 72 70 67 67 68 66 66 69 68 70 67 68 66 68 67 69 71 73 74 77
44 37 49 60 60 67 84 77 73 65 63 69 70 72 75 77 76 73 70 67 71 74 71 63 68 67 65 63 67 68 70 67 72 70 70 67 68 70 71 73 76 78 80
29 27 28 34 37 43 59 88 80 73 74 65 65 74 80 76 76 73 78 79 73 71 73 73 66 67 70 75 73 70 72 69 67 68 67 68 71 76 77 78 79 74 74
21 18 18 15 19 26 34 50 62 70 68 65 66 65 70 72 73 73 74 76 76 77 81 78 72 76 76 74 68 68 67 66 68 70 74 76 76 74 71 69 70 71 75
18 18 19 16 15 20 26 33 40 49 53 62 63 64 65 68 72 73 73 72 76 75 68 64 70 72 66 68 70 73 73 72 75 76 75 75 72 65 65 67 73 76 79
17 21 19 21 21 21 21 25 31 41 53 54 53 52 57 58 62 57 57 55 55 55 58 58 59 63 66 68 70 75 76 77 72 66 63 59 62 65 69 73 75 79 83
12 21 25 23 25 24 26 26 29 32 36 38 39 39 41 44 45 45 45 48 48 49 52 56 60 62 64 56 58 63 68 68 64 55 55 62 66 69 73 77 81 86 89
16 14 17 24 33 33 32 32 30 32 34 36 37 36 37 40 43 47 48 49 50 53 55 56 52 51 51 57 58 57 62 69 60 58 64 72 76 76 81 84 87 89 91
17 17 14 7 12 24 30 36 38 34 36 37 38 39 42 42 43 48 50 50 51 54 54 44 45 38 52 46 39 48 55 83 75 76 81 82 86 88 90 93 93 94 95
13 17 17 18 14 14 15 28 34 37 39 46 49 49 47 47 48 49 46 46 46 47 46 49 43 35 38 54 41 58 82 76 80 82 86 91 95 99 97 95 100 101 102
17 16 16 19 21 18 14 10 21 29 29 30 32 32 37 39 37 33 37 40 41 45 44 39 48 46 54 62 57 72 76 78 84 88 94 97 101 104 103 101 103 105 107
16 18 20 18 19 22 20 15 11 11 24 29 33 36 41 41 43 42 41 41 37 45 52 55 61 52 55 61 69 79 89 91 92 97 100 103 107 108 107 107 107 101 103
21 17 18 20 19 19 20 19 18 15 16 19 22 27 35 44 49 50 49 46 46 49 56 62 65 64 68 72 77 82 89 95 98 102 104 109 110 109 105 102 98 90 89
24 20 19 22 21 20 20 21 20 18 15 18 21 24 28 32 33 36 39 40 42 53 63 66 67 70 74 78 83 87 91 97 100 103 95 88 85 87 90 90 89 88 88
26 25 24 26 23 22 23 23 25 25 24 22 19 20 23 26 30 31 33 34 39 44 49 53 58 60 61 59 61 64 66 66 68 72 76 78 79 83 87 90 89 89 88
29 31 28 30 32 25 27 29 29 28 27 29 27 30 30 31 32 34 35 34 35 38 43 46 50 54 58 60 64 65 66 70 73 75 78 79 82 85 87 87 89 91 91
43 37 34 35 35 34 30 29 33 33 33 37 36 35 36 37 39 40 42 42 44 45 48 49 50 52 57 62 65 68 71 76 78 81 83 81 84 83 84 84 86 89 90
44 44 44 45 43 37 37 39 38 41 43 43 43 43 46 46 45 45 47 50 49 51 55 57 59 63 67 71 73 75 76 80 81 85 83 81 81 81 83 86 89 91 92
44 45 46 44 42 44 43 42 44 44 47 48 50 50 52 52 53 54 54 55 56 58 61 63 65 68 72 75 79 81 83 86 88 89 86 84 83 82 83 85 89 91 95
46 45 43 43 48 50 50 51 50 49 49 51 52 54 56 58 58 59 60 62 62 63 65 69 73 76 79 82 86 87 89 92 94 93 87 84 84 85 86 90 93 96 97
51 52 48 50 53 55 56 55 54 54 56 57 59 60 61 62 64 64 66 68 69 71 73 77 79 82 85 89 93 95 95 98 98 92 89 87 88 90 94 97 99 101 101
52 50 51 54 59 62 61 57 59 61 63 64 65 65 68 67 67 69 71 74 75 76 79 81 85 86 89 94 99 100 100 103 100 96 95 94 95 98 101 102 103 104 106
57 56 57 60 65 64 66 67 67 68 68 70 72 72 70 71 71 73 76 78 79 81 84 87 91 92 93 99 103 105 105 104 101 98 97 98 102 104 105 107 107 109 111
66 64 64 66 68 70 71 72 71 72 72 78 78 75 75 76 76 79 81 82 84 86 89 92 95 97 98 104 109 107 107 106 104 103 102 104 106 106 109 111 112 114 114
65 68 70 72 73 73 73 72 74 74 79 81 80 79 79 79 82 84 85 87 89 91 94 97 99 101 107 112 111 111 110 110 107 107 109 110 111 112 114 115 115 115 117

GFSMW_250_spd_087.txt.gz
Wind_Speed
22 21 34 34 36 35 33 40 45 39 44 47 43 36 37 30 30 38 46 50 46 41 42 50 50 53 57 61 61 59 58 57 56 52 51 59 65 67 61 55 55 59 60
24 20 22 32 41 41 38 39 39 31 31 34 50 46 45 41 33 35 39 48 53 55 56 55 60 60 57 60 58 58 65 63 69 68 68 66 61 59 58 58 61 60 62
31 23 16 23 32 35 43 42 43 48 40 35 28 37 45 50 48 44 42 45 46 48 52 54 58 61 68 71 68 65 71 69 66 66 58 58 60 61 61 64 66 66 64
35 24 12 11 22 33 39 34 32 47 45 47 44 38 38 48 56 52 53 54 52 55 58 60 63 64 68 68 63 60 61 65 59 55 58 58 62 62 64 67 66 61 60
37 21 10 5 7 12 22 33 36 31 44 43 50 52 47 46 53 56 53 56 58 59 63 66 68 60 62 60 60 62 61 60 59 56 59 69 67 65 66 65 68 57 60
31 20 8 5 8 9 10 13 23 31 40 43 42 47 49 48 51 55 59 63 63 62 64 63 61 58 63 62 61 59 57 54 57 62 63 65 64 69 66 53 53 54 57
24 24 16 8 5 9 12 14 14 17 22 25 33 43 50 54 54 54 57 59 57 55 53 55 57 56 56 58 52 54 52 56 60 63 63 65 68 65 68 64 63 68 72
21 22 18 18 15 13 12 14 20 22 21 20 19 24 28 32 36 37 43 45 49 49 50 46 48 46 48 48 50 53 55 53 59 59 57 61 58 62 63 66 66 68 77
20 21 16 16 15 17 18 17 18 21 26 25 22 19 23 26 29 30 31 33 35 38 40 42 48 49 49 51 54 54 52 56 52 50 51 55 55 50 63 71 74 77 81
17 20 16 17 16 14 17 22 20 17 26 29 26 26 28 29 32 33 33 35 37 39 42 46 48 47 47 49 52 51 52 50 48 46 49 50 52 60 65 70 79 84 86
20 17 17 14 15 16 17 21 24 18 14 23 27 30 31 31 32 34 35 39 41 41 43 44 46 47 45 44 48 52 45 53 55 55 60 58 66 67 67 73 76 79 79
23 22 19 17 17 17 16 16 17 18 14 6 17 25 28 30 33 35 35 38 41 42 43 41 41 41 45 42 33 37 45 55 58 58 62 68 66 65 67 72 77 80 77
20 26 27 25 18 22 18 17 16 14 12 11 9 6 9 14 18 18 16 16 17 19 22 23 25 28 30 24 18 45 55 57 55 56 60 59 62 65 66 69 70 71 71
28 29 26 30 31 24 23 21 20 17 16 15 14 13 11 10 11 13 16 18 20 22 24 26 29 31 33 36 40 45 49 52 54 58 61 63 65 68 66 68 70 76 80
37 36 31 33 35 34 31 26 23 23 20 20 21 22 21 21 20 20 21 24 26 28 29 29 31 35 39 42 43 46 50 54 58 60 63 65 68 73 75 77 78 81 82
43 40 37 39 43 39 39 34 31 27 27 26 26 26 28 28 28 28 30 31 32 34 36 37 38 39 41 44 48 51 54 57 60 62 66 69 72 77 80 82 84 85 85
51 48 40 43 46 46 43 43 38 37 35 32 33 33 33 34 33 32 33 36 37 38 39 41 43 46 48 51 54 57 59 62 65 68 70 73 75 79 81 82 84 85 86
54 55 51 48 51 48 47 49 47 44 42 42 41 37 36 40 41 39 39 39 40 41 43 46 47 50 53 56 59 61 64 67 69 73 76 79 81 83 84 85 86 87 89
59 53 56 52 56 53 47 50 50 47 44 44 47 45 45 47 45 45 45 45 47 47 51 54 56 58 58 62 65 67 69 71 72 75 81 84 85 85 87 87 90 93 96
71 67 58 58 61 58 53 48 51 50 51 54 53 52 52 52 49 49 49 49 51 54 58 60 63 67 66 69 72 74 75 77 79 84 86 87 86 88 90 92 96 99 103
78 77 71 64 63 66 57 52 52 56 58 58 57 58 57 56 56 56 57 57 58 58 62 66 69 71 72 74 78 82 84 85 88 89 91 90 89 92 95 99 103 107 109
77 78 76 71 68 69 63 58 59 52 55 57 61 63 63 62 61 63 64 61 63 67 70 72 76 77 79 81 86 88 90 91 93 95 93 92 95 98 101 106 110 113 115
82 76 74 75 74 70 71 64 61 62 59 60 68 68 66 68 67 66 67 66 70 73 76 79 82 84 84 88 93 95 97 97 98 99 97 98 101 104 109 114 117 119 121
73 77 75 77 77 70 74 72 67 67 65 67 71 71 69 70 72 72 75 74 76 78 82 86 87 88 89 94 99 101 102 103 103 102 101 105 108 113 118 121 124 125 125
73 72 73 74 75 74 75 74 73 72 69 71 75 77 76 77 76 76 79 80 82 83 87 89 89 91 95 101 104 105 108 108 106 106 109 113 118 122 125 127 128 128 129
50 64 70 68 69 70 75 75 76 76 76 78 78 78 78 79 78 79 81 83 85 87 91 91 92 97 103 106 108 110 112 108 110 113 118 122 123 125 128 130 130 131 132

GFSMW_250_spd_090.txt.gz
Wind_Speed
24 11 8 29 41 43 28 30 32 36 40 41 42 41 43 44 36 35 37 43 46 44 45 46 42 51 57 51 52 59 53 57 63 65 60 53 53 58 53 57 60 55 56
22 17 11 13 32 47 45 35 35 31 39 48 44 42 39 38 36 34 34 43 49 49 50 52 52 47 52 52 52 55 62 66 67 56 52 62 62 59 56 54 57 60 59
27 29 17 12 17 39 46 50 40 38 37 40 47 49 47 45 40 40 38 38 46 54 53 53 56 58 59 60 63 66 67 63 57 58 63 58 59 60 56 57 57 55 54
27 26 29 14 12 20 39 47 49 42 35 36 37 34 33 35 35 42 44 47 48 48 50 50 50 54 58 61 61 63 62 60 63 62 60 58 55 59 57 56 59 62 61
29 25 27 16 10 12 19 38 37 40 38 33 41 43 38 37 35 38 41 44 46 48 49 52 54 56 58 61 62 60 62 62 58 53 52 57 59 59 60 61 59 59 54
27 20 22 19 9 7 10 14 29 46 43 36 35 43 45 45 46 47 49 52 52 55 56 56 59 62 62 62 62 61 57 53 51 52 57 56 57 60 61 60 59 52 52
24 18 18 15 13 5 5 9 14 20 31 38 40 39 43 47 49 52 55 54 56 57 59 59 62 64 67 65 58 52 50 49 53 56 59 61 61 61 59 54 51 49 55
22 18 13 17 15 14 10 7 4 14 21 25 30 35 40 42 47 50 49 53 56 58 61 62 57 55 51 48 49 49 53 54 54 56 58 56 57 55 50 50 44 49 58
15 18 16 12 14 10 10 10 12 14 15 23 24 22 22 25 29 33 37 37 37 37 36 38 42 44 47 49 50 50 52 52 53 55 53 51 52 56 54 49 54 62 61
14 18 22 13 13 11 10 13 15 15 17 17 24 24 22 21 24 25 24 25 29 32 35 37 40 44 47 49 50 52 55 55 53 50 53 54 47 50 53 54 61 63 61
20 17 24 18 14 12 10 13 16 16 17 13 16 26 25 24 25 25 27 28 33 36 40 43 46 48 49 49 50 51 50 46 41 40 47 49 52 54 56 57 58 63 64
24 21 22 23 19 17 15 14 15 13 15 14 7 11 24 28 30 32 34 36 39 41 41 42 43 41 40 40 38 33 34 37 33 41 52 52 56 55 56 58 62 67 69
32 26 24 23 22 23 21 20 18 13 10 13 11 7 5 10 17 22 25 25 25 23 26 24 23 24 25 27 27 29 31 34 39 44 50 55 57 59 61 64 66 70 73
40 31 28 23 21 22 26 27 22 21 17 15 14 13 13 12 11 11 13 15 18 19 21 21 25 26 26 28 30 32 35 39 43 47 51 55 58 61 65 68 71 73 77
51 45 38 35 34 27 27 32 31 29 27 24 22 20 20 20 21 21 21 22 24 25 26 27 28 29 31 33 35 38 40 43 46 49 52 55 59 63 67 70 71 74 78
54 52 47 42 43 38 29 29 35 36 37 33 31 30 29 28 28 28 28 30 31 32 32 33 34 34 34 35 37 39 44 45 47 51 54 56 60 65 70 73 75 80 83
61 60 57 49 48 46 42 32 29 36 39 39 38 37 41 39 37 38 36 35 37 38 39 39 40 41 41 44 47 50 52 54 57 59 61 62 66 71 74 78 82 85 88
61 63 62 61 55 52 49 45 37 38 36 43 46 46 46 46 46 48 45 42 44 46 48 47 47 48 49 52 54 57 59 62 65 66 68 70 75 79 82 86 87 89 93
59 59 64 65 61 54 56 52 50 47 46 46 49 51 52 52 53 54 52 53 54 54 54 54 52 53 54 56 60 64 67 70 73 76 77 77 79 84 88 93 95 98 99
64 62 64 65 63 62 61 57 60 55 52 54 58 52 53 53 55 57 58 59 59 59 58 58 59 61 63 64 66 69 72 75 79 82 85 85 86 89 94 99 101 103 104
74 71 72 72 71 69 66 65 63 63 63 59 62 61 59 56 57 59 63 65 65 64 63 63 66 66 68 67 71 73 77 81 85 89 90 92 94 96 101 105 108 107 110
82 79 77 75 75 74 73 70 70 68 66 67 67 65 62 63 63 64 67 70 70 68 67 70 71 73 72 76 78 81 84 88 91 94 96 99 99 103 107 111 114 113 115
90 89 86 85 82 79 77 77 74 75 72 73 73 73 69 68 69 72 71 71 71 71 74 78 79 80 81 81 83 86 89 92 95 99 101 103 105 110 114 119 119 117 117
90 91 90 88 86 87 87 86 83 79 80 79 82 79 77 76 76 76 77 76 76 75 77 79 83 85 85 87 89 89 92 95 99 104 107 109 112 116 122 125 118 121 123
84 91 93 94 94 91 86 81 78 80 81 83 82 82 82 84 83 83 81 81 82 83 83 86 88 90 90 94 94 95 98 101 105 108 111 114 119 124 129 122 124 127 131
69 71 72 74 75 74 73 72 73 76 77 80 80 81 79 84 87 86 85 86 87 89 90 94 95 97 98 97 101 104 104 108 110 112 118 123 125 128 123 127 130 134 137

GFSMW_250_spd_093.txt.gz
Wind_Speed
30 31 29 25 33 43 36 33 35 35 37 36 47 45 43 41 38 46 45 44 41 37 36 36 40 49 40 37 37 40 47 52 55 59 58 65 62 67 68 62 56 54 56
30 30 25 20 27 40 44 39 35 38 37 39 39 48 47 45 38 42 40 39 41 42 41 43 48 51 44 44 46 48 57 64 61 64 67 69 70 72 68 60 56 56 58
29 29 26 15 19 29 45 46 41 37 38 41 45 42 43 48 40 42 44 41 41 43 43 48 54 50 52 57 55 55 60 61 68 70 71 71 75 74 60 64 61 59 59
25 28 24 23 9 11 32 49 51 40 39 41 42 47 48 46 45 42 41 39 40 39 49 50 55 51 57 64 63 66 65 68 65 67 69 74 70 64 64 63 62 63 63
23 24 27 22 16 9 14 37 54 52 43 42 44 45 50 49 49 46 42 44 45 44 48 52 60 66 67 68 67 67 65 66 68 72 73 67 64 64 65 63 63 65 62
23 22 27 20 18 10 12 15 37 49 52 47 48 47 46 46 53 52 47 46 46 51 56 58 58 58 62 64 65 63 64 68 72 68 62 61 62 67 67 68 66 63 62
23 19 18 19 14 11 8 10 16 37 46 54 58 49 47 51 49 47 49 49 49 50 54 57 58 60 59 60 63 68 68 68 65 64 63 65 66 66 68 65 64 66 66
25 24 16 17 16 9 4 6 1 13 28 44 51 54 54 52 53 52 53 54 54 58 63 65 62 63 66 70 71 71 69 66 66 62 63 64 67 67 63 67 68 63 59
28 26 16 16 19 13 12 8 7 5 5 11 33 47 53 52 50 56 60 61 62 63 67 69 69 71 71 68 72 70 65 66 63 60 63 65 65 67 69 69 69 61 55
35 29 25 22 19 19 12 10 12 11 10 10 16 33 37 43 50 55 59 65 68 71 72 72 73 74 74 69 60 54 56 59 62 61 62 64 67 68 64 66 57 56 58
36 32 35 22 19 22 18 15 14 15 16 11 10 18 29 35 35 38 47 58 63 60 58 58 47 46 45 47 52 56 57 58 61 65 66 64 63 62 59 57 57 57 60
38 38 35 27 25 21 24 21 18 17 19 22 10 6 4 16 25 27 26 29 31 35 36 40 45 48 51 53 55 58 60 56 52 50 49 47 47 47 53 53 54 56 57
38 39 36 37 27 23 25 28 24 21 20 23 22 13 8 6 10 21 30 35 38 40 44 46 49 50 47 41 37 34 36 37 37 38 39 40 44 46 49 51 52 55 56
43 41 37 43 37 29 27 24 21 25 26 26 25 21 15 12 12 13 14 15 18 23 25 27 28 29 29 32 34 36 36 36 36 36 35 38 42 45 49 53 55 59 62
49 45 44 40 42 37 33 26 26 28 25 25 30 28 25 22 21 22 21 22 23 24 25 28 30 32 34 36 39 39 40 38 37 38 43 46 50 52 56 59 62 66 70
52 49 47 46 47 44 40 37 43 34 30 31 26 28 31 33 32 31 30 30 31 33 34 36 37 38 39 43 45 44 44 46 48 51 53 55 57 60 64 68 71 75 78
55 54 52 48 53 49 50 50 47 39 41 35 31 31 30 35 37 38 41 41 41 40 43 45 46 46 48 50 51 52 52 53 54 56 60 62 65 68 71 74 77 81 85
60 60 59 56 52 52 49 53 52 48 47 48 45 35 36 40 40 45 48 48 48 50 54 56 56 54 55 56 58 60 59 60 61 63 65 68 70 72 74 78 81 85 89
66 66 61 57 56 53 55 56 54 55 59 56 51 50 47 43 45 50 52 55 55 56 56 60 61 62 61 61 63 65 66 65 68 71 71 74 76 79 82 84 86 89 93
68 68 65 62 58 58 57 59 61 62 59 60 57 55 56 56 55 54 53 55 60 59 58 59 63 66 68 68 69 69 70 71 75 77 79 82 85 87 88 89 92 94 98
75 74 72 68 63 64 64 62 62 65 64 63 63 63 60 62 65 61 59 62 63 67 70 68 69 71 73 74 76 76 78 79 82 83 86 87 88 91 94 97 99 100 102
79 79 75 68 67 66 66 67 68 66 66 67 69 69 69 67 67 70 65 71 72 73 74 74 74 75 78 80 80 81 84 84 87 89 91 94 95 98 101 105 105 106 110
85 85 83 77 71 71 71 72 72 73 73 71 73 73 74 73 74 73 73 75 73 79 82 81 82 84 84 84 84 85 88 92 94 94 94 97 103 103 105 109 110 114 117
94 89 87 87 86 84 82 80 79 78 79 79 81 82 80 81 81 80 79 81 81 82 84 85 88 87 89 92 93 94 95 95 97 101 103 105 107 111 112 115 117 119 124
77 84 91 97 98 96 92 89 87 87 87 87 88 87 87 88 86 84 82 81 79 81 80 82 83 85 90 94 97 96 97 100 105 108 111 112 113 116 119 121 123 127 130
65 66 68 74 81 87 94 95 93 92 91 89 88 86 85 83 80 76 73 72 72 78 83 80 79 81 85 88 92 98 102 106 110 111 115 119 118 122 123 126 131 132 134

GFSMW_250_spd_099.txt.gz
Wind_Speed
36 26 26 28 33 34 33 29 28 31 34 34 34 45 50 50 60 54 50 58 54 58 49 43 33 29 30 32 29 29 27 29 31 34 36 38 45 47 51 54 50 51 57
37 28 25 29 34 33 33 33 26 40 34 40 31 42 52 56 54 53 49 53 47 50 53 46 39 42 37 35 36 35 33 34 36 40 42 44 50 54 53 54 57 60 63
32 30 25 29 32 33 32 32 26 31 38 38 36 38 55 53 58 56 59 54 44 47 47 51 49 39 45 48 41 43 41 42 41 43 46 54 56 56 59 62 64 65 66
27 32 25 27 29 31 31 30 25 24 45 41 40 39 44 49 53 56 62 58 65 47 45 48 47 48 47 55 53 51 49 47 49 50 50 58 61 65 65 63 64 72 72
30 30 25 25 26 27 28 24 21 18 40 43 43 41 41 46 51 51 54 56 50 47 49 45 48 48 48 54 53 51 50 52 54 58 57 59 64 64 65 68 71 74 75
32 30 29 23 24 23 25 21 18 17 28 44 43 45 44 45 51 49 50 50 50 49 47 43 45 46 47 51 51 53 53 55 57 59 61 65 67 70 73 74 77 77 78
31 31 30 22 21 21 20 20 14 17 18 43 53 46 48 46 49 52 54 53 52 52 49 48 49 49 51 52 53 53 57 58 57 58 63 64 67 70 73 75 75 76 79
33 34 28 24 23 20 22 19 15 12 12 16 50 56 48 48 47 51 57 61 61 56 55 53 52 52 52 54 56 58 61 62 61 60 61 68 73 77 78 79 79 80 80
35 36 29 26 27 23 21 17 15 11 10 8 17 46 54 51 54 56 60 62 61 63 61 60 58 59 58 61 64 64 64 64 66 68 70 72 74 76 79 81 83 84 84
33 36 30 29 28 25 24 22 15 16 10 8 6 11 23 45 53 55 54 58 61 63 65 64 67 65 65 67 67 66 66 68 70 71 72 76 76 79 81 80 80 81 75
35 40 33 33 32 29 30 28 23 16 16 13 10 11 18 19 23 46 59 56 57 62 65 64 64 64 65 65 65 66 67 70 72 74 76 77 79 80 81 84 82 79 79
37 37 39 35 34 34 29 32 28 23 21 18 18 15 15 16 21 30 45 53 59 60 62 63 65 63 63 65 66 69 70 73 74 76 79 82 81 75 76 75 75 67 63
46 43 39 39 39 38 38 28 30 30 28 25 24 20 18 17 13 10 11 26 38 51 62 62 63 65 69 73 74 76 77 81 81 76 68 65 68 65 57 56 57 58 60
50 39 42 47 44 44 39 36 32 32 30 28 27 25 25 23 18 13 13 13 14 22 33 41 45 51 56 59 64 69 70 67 64 60 52 48 49 52 54 56 57 59 61
52 49 56 47 44 46 45 42 39 35 36 36 32 32 30 24 21 18 21 19 22 21 20 21 23 24 27 30 32 34 37 39 43 45 47 50 54 58 60 63 66 66 67
54 48 48 46 44 48 48 45 43 42 42 40 37 36 35 30 26 28 31 30 25 23 26 27 31 34 36 38 38 40 43 46 48 50 53 56 60 63 67 71 74 77 81
51 51 46 47 47 47 50 52 48 47 43 43 41 36 39 43 42 36 34 38 36 34 36 38 38 37 37 40 43 45 48 52 55 55 57 60 62 64 69 72 76 80 84
58 55 57 52 54 46 48 51 51 55 55 53 47 44 43 38 46 46 42 43 42 45 45 44 47 48 51 53 53 53 54 54 57 60 63 66 69 72 75 77 81 85 88
67 64 60 59 57 56 59 56 56 53 56 56 55 56 54 53 53 52 49 50 51 50 51 53 54 53 54 57 60 63 64 66 68 69 72 73 75 79 84 88 89 92 97
68 67 65 66 64 60 62 63 63 64 61 56 59 57 58 59 61 62 62 61 58 56 57 58 59 62 62 63 64 67 69 69 71 74 79 81 85 91 89 88 94 97 101
63 67 66 66 67 68 65 62 57 57 58 59 57 58 61 61 61 64 66 66 66 66 65 65 65 66 68 68 70 72 74 77 81 81 85 89 96 92 93 93 93 93 93
72 73 72 72 72 73 74 71 70 63 59 61 65 65 67 65 65 66 68 69 70 69 67 66 67 69 71 73 74 77 79 83 85 90 95 97 92 90 90 91 87 90 95
78 78 77 77 75 74 76 77 76 74 71 69 70 72 72 67 67 72 75 71 71 73 76 76 76 77 78 79 80 82 86 91 95 98 96 93 92 84 89 87 95 99 104
83 84 84 84 85 85 84 81 79 79 76 73 70 67 66 69 71 72 72 74 76 78 78 80 80 81 84 86 88 91 87 97 96 92 92 84 87 94 98 95 100 106 110
88 87 88 90 89 88 86 84 84 83 82 82 81 80 78 81 81 83 83 82 84 82 81 83 87 89 88 91 91 95 87 86 90 88 75 84 89 101 109 109 108 112 114
76 78 82 87 86 88 92 92 89 90 91 90 84 83 83 82 84 83 83 86 87 90 90 90 94 94 94 93 90 77 86 88 85 77 83 95 98 101 105 108 114 118 120

GFSMW_250_spd_105.txt.gz
Wind_Speed
55 48 48 37 36 36 33 29 28 28 28 29 20 21 27 28 35 46 38 35 33 42 44 39 41 29 25 19 17 14 21 22 28 30 34 38 33 33 36 37 37 36 41
47 46 44 40 36 39 33 30 27 27 28 28 21 19 31 32 33 47 42 41 35 41 46 44 46 41 35 27 19 17 20 24 22 23 23 40 41 32 35 37 40 41 45
53 45 45 42 35 38 31 27 26 25 28 29 23 17 30 36 35 36 39 36 39 38 51 48 41 45 44 46 40 37 32 32 33 29 28 32 36 38 41 43 46 48 49
59 46 47 42 30 35 29 27 24 23 28 28 24 20 32 39 37 37 36 35 37 36 45 35 43 45 46 47 41 38 36 38 40 41 44 47 50 47 47 50 52 52 54
51 43 44 36 36 32 28 24 22 23 26 27 22 20 31 37 38 40 40 42 37 39 45 49 44 52 45 50 53 47 44 42 45 49 47 48 49 48 53 56 57 59 59
45 45 47 40 40 37 32 23 21 21 25 24 20 19 26 38 42 42 44 45 41 44 45 45 52 57 49 49 49 51 56 56 49 52 52 55 55 53 59 60 62 62 64
45 49 51 41 38 35 27 25 21 19 24 17 18 17 12 38 42 42 47 48 53 49 53 50 55 53 49 51 50 50 51 54 49 53 55 57 58 58 58 61 64 66 65
50 55 49 44 32 33 30 27 22 23 20 16 16 16 10 28 40 43 44 47 53 55 55 54 51 57 57 55 55 53 54 52 57 58 57 61 61 60 59 60 64 68 66
57 55 49 47 43 30 30 28 24 26 19 16 14 15 10 7 41 43 43 47 48 56 61 61 63 61 56 61 62 57 56 57 57 57 60 60 60 62 60 65 67 68 69
51 52 51 43 47 46 32 30 31 24 23 18 14 13 10 8 10 44 45 43 49 49 54 59 64 64 67 57 56 55 57 57 58 60 60 61 63 63 64 68 69 67 68
59 42 44 44 40 41 41 34 30 26 24 22 17 14 13 11 10 14 40 48 45 47 51 55 59 59 59 59 59 60 61 63 63 63 65 66 68 69 67 66 69 71 69
59 54 51 48 36 39 39 39 37 34 23 22 22 17 17 16 16 16 18 33 49 50 50 51 54 59 60 62 63 65 66 67 67 64 64 64 66 67 65 64 64 66 69
63 61 54 40 36 40 38 39 36 31 31 26 22 24 22 20 19 21 23 24 30 34 41 48 56 60 59 58 59 62 63 63 64 66 65 66 66 67 69 69 74 69 63
56 49 44 44 42 42 39 40 39 37 31 30 33 28 28 27 25 25 24 22 25 27 29 31 36 47 55 59 63 65 64 68 73 74 75 77 76 80 80 70 56 49 50
51 46 45 43 43 46 42 42 39 37 37 34 35 32 33 32 32 29 29 28 25 25 27 28 25 25 28 33 39 44 47 50 51 52 49 46 46 46 46 47 51 55 59
53 51 48 45 48 43 41 34 35 36 38 36 38 39 37 34 32 34 36 35 33 31 33 32 31 30 31 31 32 34 34 36 38 40 41 43 45 50 53 54 56 60 64
51 50 53 53 51 50 41 39 31 31 37 42 40 40 37 36 38 36 37 41 38 38 38 39 41 40 37 37 38 38 40 43 45 47 49 51 55 58 61 62 64 67 70
59 62 56 55 53 51 48 44 46 44 49 44 41 39 39 40 41 42 44 43 42 41 42 43 42 47 48 49 49 48 46 48 50 53 56 60 62 64 65 67 70 74 76
64 64 59 55 55 53 50 54 48 55 53 46 44 45 45 44 45 48 48 50 48 47 48 47 47 49 50 51 52 55 56 57 59 60 63 67 70 71 73 75 76 78 81
59 56 60 62 57 46 50 54 51 55 54 55 55 51 49 47 49 50 49 51 49 46 47 49 51 50 52 56 58 59 60 63 65 67 68 70 72 75 76 77 79 80 80
60 64 65 65 63 55 54 61 69 70 69 67 61 55 55 53 55 57 58 57 55 58 59 59 56 58 59 59 61 61 62 63 67 70 68 71 75 81 85 85 86 87 87
67 70 68 68 70 67 64 64 70 72 75 75 70 64 60 62 62 60 59 58 60 62 64 65 64 62 63 64 66 66 67 70 75 71 72 76 76 65 80 98 89 81 88
71 68 71 71 73 71 67 62 67 74 74 72 69 69 69 67 68 67 67 65 65 60 62 69 69 70 67 70 70 71 72 60 79 63 79 83 80 80 90 91 88 96 99
76 77 77 73 71 71 71 68 66 66 66 70 73 74 73 74 75 74 73 74 72 71 76 76 72 75 71 78 78 69 78 71 67 79 82 82 82 83 83 93 99 103 107
70 71 71 70 68 66 65 66 69 70 71 73 73 74 75 75 76 77 78 79 79 77 78 80 81 83 81 82 81 79 86 85 81 82 88 92 92 93 93 98 106 110 114
71 70 72 75 75 73 73 74 74 73 72 72 74 77 80 83 84 84 82 84 84 85 84 83 88 88 89 90 90 92 92 94 95 97 96 98 103 101 105 106 115 118 118

GFSMW_250_spd_108.txt.gz
Wind_Speed
58 56 55 48 41 30 31 34 33 33 31 28 30 27 20 19 27 29 23 22 29 43 42 45 40 37 40 33 28 25 32 18 11 8 16 21 24 26 26 30 35 34 35
59 57 59 46 47 41 31 36 33 31 30 29 28 28 24 20 31 31 32 31 34 44 42 44 41 42 34 27 30 35 24 16 13 15 17 22 23 25 30 25 28 39 38
63 59 55 48 52 45 27 37 33 32 30 28 27 28 26 20 36 36 39 36 36 38 40 40 42 43 40 32 31 26 24 24 23 22 24 24 23 18 25 33 35 39 44
62 56 51 49 52 40 25 35 34 32 30 25 26 27 28 18 39 38 42 46 40 36 37 39 37 40 36 40 41 42 42 43 42 29 30 30 33 33 35 38 42 45 46
53 52 51 49 51 39 27 34 34 33 30 26 24 27 28 17 38 40 41 49 48 45 40 45 40 42 45 38 40 45 43 43 44 38 36 34 35 40 44 44 46 47 48
47 49 48 42 48 35 29 33 34 33 28 24 23 27 24 19 31 41 42 44 50 46 43 49 46 45 41 44 45 43 46 49 48 51 48 50 50 53 48 48 50 51 54
48 49 45 46 43 34 31 33 35 30 26 24 21 26 19 20 26 40 45 41 42 45 42 41 47 42 47 50 48 48 50 53 54 51 50 47 50 53 51 49 54 55 59
43 45 42 47 38 35 33 38 37 34 27 24 23 25 20 16 22 43 46 48 43 39 40 40 53 50 46 53 57 52 59 58 57 55 51 47 49 52 55 57 61 62 61
37 40 43 45 36 37 35 34 34 31 28 27 25 24 20 16 16 41 42 48 52 45 45 48 50 53 58 61 56 53 54 54 57 54 56 60 61 56 58 60 60 62 63
34 38 43 42 35 42 37 34 37 32 31 25 28 25 20 15 10 37 44 41 50 55 49 49 49 53 56 58 56 56 59 60 60 59 57 61 61 63 63 62 63 64 65
32 40 44 40 44 49 47 38 33 33 34 27 28 27 23 16 12 14 42 43 42 50 58 55 57 56 53 60 59 59 60 59 59 59 61 63 65 64 66 66 69 70 69
35 42 42 43 49 54 51 48 48 35 32 35 33 31 26 21 18 14 18 38 44 46 43 55 58 56 58 60 63 64 62 65 66 70 69 69 66 66 66 64 65 71 72
37 42 50 40 44 47 49 44 43 40 38 38 32 29 29 26 23 21 19 18 30 35 41 46 48 50 52 58 59 62 64 63 63 65 67 69 69 68 66 66 66 65 67
39 45 54 46 41 43 46 46 39 39 43 42 39 32 29 31 29 27 26 26 26 25 29 35 39 43 47 51 54 55 57 59 61 61 62 63 65 63 61 61 60 63 63
40 52 60 52 47 48 51 46 41 39 42 42 42 36 38 33 31 34 33 32 29 30 29 31 30 30 32 37 44 53 58 60 62 64 62 61 63 64 57 52 49 50 52
48 59 60 63 57 56 56 49 44 41 41 42 45 42 38 36 37 34 35 34 33 31 31 29 29 30 30 29 29 29 31 33 34 36 37 38 40 43 46 49 53 56 59
58 59 49 62 64 66 62 54 50 46 45 39 39 44 43 42 41 41 40 37 37 36 36 35 32 32 36 39 38 37 37 37 37 39 42 45 49 52 54 57 59 62 66
60 54 57 65 63 59 57 53 52 47 48 43 39 37 46 46 45 47 46 44 40 38 36 35 37 38 38 41 43 42 46 47 46 49 53 55 56 57 59 63 65 68 70
57 61 56 64 61 58 57 55 53 48 49 49 36 40 50 48 47 46 45 50 50 47 42 42 43 44 42 43 44 44 45 49 51 52 52 54 57 61 64 63 64 68 71
56 63 61 62 62 61 58 56 57 49 51 52 56 48 53 52 50 46 46 46 46 46 48 50 49 48 47 48 47 47 49 51 53 56 59 59 60 61 63 67 70 72 73
63 60 57 59 64 63 62 59 58 57 56 55 52 57 59 56 55 51 53 55 58 57 53 49 49 51 52 56 58 59 59 59 60 63 64 65 67 67 70 74 74 77 78
78 73 65 66 65 64 61 58 59 62 62 59 58 64 58 64 66 61 59 57 56 57 59 60 59 58 61 63 65 66 67 65 66 67 67 69 69 70 77 79 81 82 81
76 77 75 70 69 69 70 66 63 63 62 68 64 64 69 71 72 73 70 65 62 62 63 65 62 62 62 66 70 72 75 70 69 58 68 72 75 80 81 77 85 86 84
78 73 74 72 67 63 62 65 69 66 69 65 71 77 78 79 80 82 82 80 77 70 67 68 68 69 68 71 73 74 75 76 69 68 74 79 88 87 89 88 89 95 99
72 68 70 70 73 69 75 71 68 69 71 73 72 73 76 77 80 84 86 85 85 78 77 79 77 73 72 74 77 77 78 80 80 81 92 90 91 93 96 96 97 105 105
71 71 73 73 71 70 77 79 78 77 77 79 79 80 77 74 75 78 84 85 85 86 85 84 84 85 81 80 82 80 83 83 89 90 91 89 89 93 98 104 107 106 110

GFSMW_250_spd_114.txt.gz
Wind_Speed
52 53 48 48 48 48 45 47 48 47 42 43 40 39 37 35 31 27 22 24 28 31 31 29 31 38 52 62 47 38 34 31 26 21 16 18 14 8 7 12 14 18 26
59 54 52 51 51 53 52 50 49 47 43 47 41 40 37 36 34 28 22 24 29 32 31 29 28 39 50 61 54 46 42 36 34 28 18 20 17 15 7 7 11 17 21
68 60 58 55 57 56 53 50 48 48 49 49 40 39 36 34 33 30 24 24 26 32 32 29 30 38 46 55 60 51 40 41 38 36 32 27 26 25 18 15 15 20 22
71 67 62 61 59 56 55 54 52 53 48 49 39 38 36 34 32 30 23 25 25 33 32 31 34 40 45 54 58 50 47 50 36 33 35 25 30 30 30 22 26 26 22
72 70 64 63 58 56 57 54 56 50 50 47 39 39 37 37 34 30 27 26 25 35 33 34 31 39 39 42 45 50 48 40 37 36 31 36 37 31 27 26 32 32 34
70 67 63 62 58 58 59 58 54 53 49 42 38 38 36 36 34 32 27 26 23 36 36 35 30 40 44 37 40 47 40 39 40 29 37 37 35 34 31 32 32 33 37
67 65 60 60 58 60 58 55 54 54 49 43 39 38 38 37 33 31 27 26 21 37 39 36 37 40 46 41 44 45 42 41 40 37 42 40 34 36 35 37 39 40 42
66 64 63 61 61 58 56 54 53 52 49 43 38 40 41 37 33 30 26 23 18 37 43 40 41 43 46 44 50 42 44 49 53 44 51 41 37 40 44 47 47 47 49
67 64 62 60 58 58 55 54 53 53 49 41 39 42 41 36 36 29 27 18 21 37 46 43 46 42 46 46 44 41 38 35 38 38 43 46 50 51 52 54 54 58 56
66 63 62 60 58 55 53 54 53 52 45 40 40 44 42 40 37 32 27 17 23 34 47 47 45 48 53 50 47 44 42 46 48 45 47 50 53 57 62 60 62 63 63
64 62 60 57 54 53 53 53 52 49 43 40 43 44 42 41 37 35 27 17 19 35 42 49 46 45 47 55 51 51 52 55 54 56 52 48 49 50 52 54 51 53 56
62 59 57 54 53 52 52 53 53 47 41 42 47 47 41 42 39 35 29 18 16 39 47 51 49 47 58 50 53 59 62 61 63 66 65 63 56 49 54 57 57 59 64
55 55 53 52 49 50 49 51 52 48 40 44 48 47 42 42 41 37 32 23 16 41 45 51 46 47 53 59 56 60 61 61 65 67 67 67 64 65 65 66 69 73 76
48 49 47 48 47 47 45 49 49 41 40 48 48 46 43 45 44 41 35 28 26 27 45 44 43 54 51 54 53 59 62 64 64 65 69 70 72 74 75 78 78 78 76
55 52 52 48 47 46 39 47 46 40 43 46 48 47 42 44 44 41 37 34 33 30 29 43 50 52 53 56 57 60 62 61 61 65 68 71 74 77 78 81 80 80 77
64 60 55 55 50 44 40 48 44 43 51 49 46 43 44 43 41 43 42 36 38 37 35 34 38 48 60 59 55 52 54 58 64 66 70 72 72 70 68 68 69 72 71
66 63 64 61 57 43 43 50 42 45 55 55 49 47 45 44 39 37 40 38 39 43 43 43 41 39 42 47 50 51 57 57 57 63 65 66 67 70 74 76 74 70 68
67 64 62 57 56 45 48 46 41 34 53 51 52 52 50 48 45 46 42 42 43 43 44 47 44 43 42 42 44 47 49 50 51 51 52 53 54 55 57 60 62 63 64
61 61 64 63 59 49 55 48 55 51 61 54 58 58 56 53 48 45 48 50 47 46 47 48 49 50 48 49 48 49 53 54 54 56 59 58 56 58 61 63 63 65 66
52 56 61 61 59 53 59 54 62 60 66 63 62 60 55 53 52 53 52 49 49 51 50 52 54 53 53 54 54 53 53 55 56 56 57 58 58 59 62 67 69 73 74
48 53 58 61 60 58 63 59 54 60 64 64 62 58 52 55 53 51 54 53 56 53 53 56 58 59 59 58 59 57 58 61 63 63 64 65 64 67 66 67 68 71 74
48 50 55 60 60 63 66 72 68 58 63 60 59 61 58 56 62 56 57 55 55 57 63 62 60 61 60 59 61 60 60 61 62 63 63 64 67 68 70 71 75 79 82
47 47 52 55 59 65 65 73 78 71 62 62 68 65 66 66 60 62 60 62 59 60 60 63 66 66 63 63 65 62 63 65 66 68 70 73 75 77 79 83 84 89 88
45 46 51 55 62 66 64 68 80 81 72 64 70 74 64 66 67 67 63 58 58 60 61 65 65 65 66 66 67 68 70 72 73 76 80 79 80 81 84 88 89 87 84
46 48 51 56 62 65 67 69 69 85 83 72 67 77 71 68 71 69 67 66 64 64 65 70 72 71 71 72 73 74 75 77 81 83 87 92 90 89 91 91 89 86 87
47 49 52 56 63 66 68 67 74 76 80 84 76 74 80 82 80 77 74 73 75 73 73 73 77 80 81 80 80 82 83 82 84 87 88 94 95 96 98 99 99 96 96

GFSMW_250_spd_117.txt.gz
Wind_Speed
72 67 65 61 59 60 63 57 48 46 47 48 45 44 42 41 37 30 35 35 31 26 31 30 30 34 29 33 44 51 48 38 29 22 16 14 17 17 14 17 22 26 22
65 59 57 55 58 59 60 55 47 44 49 48 48 47 44 43 38 31 35 38 34 26 31 30 31 35 31 32 43 50 55 43 37 29 22 20 19 18 16 15 17 18 18
68 61 56 54 53 54 54 55 52 48 50 51 49 50 49 45 42 33 35 41 35 28 31 31 32 31 28 29 40 49 59 46 39 34 31 24 23 21 17 16 13 15 14
77 73 72 70 65 64 61 62 60 51 52 52 49 50 53 49 46 36 34 40 37 29 30 31 34 31 28 28 38 47 57 46 44 36 35 29 30 27 27 23 21 19 17
80 80 81 76 73 72 67 64 61 56 53 52 51 52 55 54 47 39 37 39 37 32 30 31 36 34 28 31 37 48 58 53 48 39 36 35 37 38 28 33 30 29 23
79 79 75 71 69 64 68 66 65 58 55 51 51 54 56 53 45 41 40 38 36 36 31 31 37 36 30 26 38 48 56 56 53 47 47 43 38 32 34 36 41 39 35
80 75 73 71 70 65 63 64 63 60 57 53 53 54 56 50 44 41 41 43 37 35 32 32 39 37 34 25 33 44 53 53 55 53 47 43 40 33 38 42 40 36 32
80 77 72 70 68 65 62 63 61 61 59 57 54 54 55 49 43 40 41 41 39 36 31 33 42 40 30 31 37 43 47 51 51 54 44 41 39 38 45 42 34 38 37
81 77 72 71 70 68 62 63 61 63 60 57 55 55 53 48 43 41 42 41 39 36 31 33 44 39 37 36 41 41 41 40 47 48 43 41 42 40 44 40 40 45 45
81 79 76 73 71 70 68 61 60 63 60 57 57 56 52 48 42 43 44 42 39 35 31 33 46 41 43 42 33 46 41 43 46 48 48 47 48 51 52 54 46 47 54
79 79 78 78 75 69 64 62 61 60 60 58 58 55 52 45 42 45 45 43 39 33 33 32 46 45 40 40 37 43 47 44 49 49 47 54 51 47 43 51 56 59 57
74 72 73 71 68 66 62 62 64 62 60 58 57 54 45 40 43 45 46 42 40 32 31 32 44 49 42 43 42 45 46 44 46 51 56 50 54 55 52 48 51 57 57
71 72 68 65 62 62 63 64 63 60 58 56 56 52 42 38 44 46 43 43 42 33 29 35 44 50 46 44 44 43 52 54 53 51 54 59 57 58 65 65 59 55 57
63 58 59 57 57 60 62 62 62 57 54 55 56 50 41 40 46 45 44 42 40 35 29 44 39 49 50 49 47 45 48 52 59 60 61 63 66 68 69 70 73 72 71
57 53 53 53 57 61 61 62 60 56 54 53 53 44 41 42 47 45 41 42 43 36 36 43 41 42 50 54 54 55 49 47 51 59 63 65 65 69 72 70 74 76 76
57 52 50 50 51 55 57 58 56 52 51 53 49 40 40 45 48 47 40 41 44 40 39 35 38 44 46 51 55 56 56 54 55 57 59 62 64 65 67 69 71 73 74
60 58 53 51 49 48 47 50 50 51 47 50 41 37 41 45 46 42 42 42 46 44 42 41 36 37 49 48 47 50 55 58 58 60 63 66 67 70 73 75 74 76 78
63 63 60 56 55 55 53 53 53 49 45 47 36 43 40 45 46 43 44 44 45 43 45 45 42 41 40 44 52 50 49 52 55 57 54 56 61 66 71 71 69 67 70
67 63 64 62 60 61 58 56 54 47 43 43 43 46 48 50 48 46 47 46 44 40 45 42 42 47 49 48 45 44 46 48 50 49 50 52 53 54 57 59 60 62 65
62 57 63 65 67 67 65 62 56 47 45 37 45 49 43 52 50 50 49 49 50 48 46 42 41 44 49 51 52 52 51 53 55 57 58 58 58 61 63 65 67 68 68
49 48 55 66 67 67 68 66 61 51 48 41 44 48 45 54 55 55 52 53 52 54 55 57 54 50 51 52 53 55 56 58 60 58 60 62 64 68 69 70 72 74 75
46 50 53 59 64 66 67 67 61 56 59 59 63 56 59 55 55 66 61 59 53 53 53 54 56 57 58 56 58 60 61 63 64 66 67 69 69 70 71 71 73 73 75
48 50 52 53 56 59 61 64 64 62 67 62 58 54 59 69 60 59 68 66 63 55 58 58 57 57 60 63 61 61 63 65 66 66 67 69 72 71 71 73 77 81 83
45 45 45 47 49 52 54 57 61 65 69 72 71 63 59 68 72 60 66 61 59 64 62 63 62 56 56 59 63 65 65 68 71 73 75 78 78 78 77 80 85 85 85
42 42 43 44 45 46 49 53 58 62 73 78 78 65 62 62 59 64 70 66 69 68 68 69 70 70 67 66 64 65 68 75 77 77 76 77 76 80 83 85 88 89 94
41 42 43 44 45 46 49 52 58 62 72 73 79 75 73 77 74 74 73 70 63 73 78 73 72 72 71 67 67 67 70 71 84 79 84 80 78 83 91 91 94 95 97

GFSMW_250_spd_120.txt.gz
Wind_Speed
79 76 74 72 72 69 69 69 64 62 56 51 52 49 45 39 43 43 41 39 37 31 34 37 35 34 30 35 38 36 34 43 44 32 24 20 19 21 20 14 15 20 22
76 74 70 71 72 69 67 67 66 57 52 51 55 50 47 43 43 45 45 42 41 36 35 38 34 35 30 33 38 37 34 44 48 38 28 23 19 23 20 21 18 19 21
71 70 69 66 63 61 58 57 55 54 53 49 52 48 48 47 44 48 46 46 43 39 40 39 35 34 33 31 40 40 31 43 53 46 38 30 25 21 17 19 23 20 21
75 64 63 63 62 58 53 49 52 52 49 47 48 49 51 49 48 50 50 51 46 41 42 41 37 33 35 29 38 37 32 38 49 55 46 38 29 26 21 20 19 20 23
75 71 67 70 64 58 54 55 57 55 52 57 56 56 54 51 51 51 52 50 48 43 40 44 39 33 35 30 37 36 34 34 43 54 53 45 36 31 30 26 22 27 29
84 76 71 69 69 69 69 69 73 66 62 68 63 56 57 56 53 54 53 53 48 41 42 42 40 32 35 33 38 35 35 36 44 48 53 46 39 36 33 31 32 30 35
84 85 84 77 73 70 67 65 69 65 60 62 59 60 58 55 55 55 55 53 48 40 40 43 42 36 36 35 39 35 32 33 43 52 49 46 44 41 34 30 31 32 39
87 86 81 79 77 72 75 75 69 62 57 63 60 56 56 55 56 56 56 54 46 39 40 44 40 41 37 36 44 36 33 30 39 47 52 51 48 43 44 46 40 38 35
84 81 78 75 78 73 71 70 66 64 60 59 58 54 55 54 56 56 57 52 43 39 41 46 41 40 38 35 47 38 30 28 34 43 48 54 52 52 46 44 40 41 41
86 80 76 74 74 73 71 71 68 66 63 60 57 55 56 57 58 58 55 51 43 39 43 45 43 41 41 38 49 37 36 33 35 36 46 49 52 52 49 49 43 45 45
74 77 78 76 75 72 71 71 68 68 65 62 60 58 58 58 58 56 54 50 43 39 44 43 42 39 43 39 46 42 38 32 40 36 44 49 50 50 50 51 51 55 56
73 72 71 71 69 71 70 68 67 68 66 62 60 58 56 57 55 55 53 48 43 38 44 42 41 37 43 38 44 48 47 37 35 39 35 43 46 51 58 56 57 51 51
66 68 69 67 63 67 66 63 64 64 65 62 62 59 58 58 57 55 51 45 42 39 43 41 38 36 37 37 45 45 48 41 37 41 41 39 46 55 59 57 54 53 54
60 68 62 63 68 73 69 65 66 61 58 58 59 57 59 58 57 53 47 42 39 41 42 41 38 31 34 39 46 47 43 39 40 43 45 45 45 51 55 55 55 57 58
57 58 63 65 66 74 73 71 69 64 58 58 59 58 55 56 54 51 43 41 42 44 42 42 37 30 35 40 45 47 46 39 43 45 47 49 51 55 57 58 61 64 64
82 74 66 63 64 66 63 61 58 53 53 54 57 57 54 54 57 52 43 39 46 46 42 44 37 38 25 42 45 49 50 47 42 44 44 50 55 57 59 62 64 63 65
63 60 59 52 53 52 50 49 49 51 52 55 55 55 53 55 56 47 43 43 48 49 43 43 40 39 34 32 46 52 52 53 51 47 44 47 50 53 57 59 62 64 65
72 82 73 64 57 51 48 51 51 51 53 56 53 54 56 57 50 42 42 45 47 48 42 41 42 42 40 34 36 48 53 58 58 56 55 55 58 60 61 64 69 71 72
77 67 71 67 62 57 53 52 50 47 50 55 54 51 50 52 41 42 42 46 45 49 46 41 41 44 42 39 37 38 47 45 54 58 59 61 63 62 62 62 64 66 67
84 69 59 56 59 58 60 57 54 51 51 51 50 50 50 38 41 42 41 45 44 49 45 47 44 45 43 41 42 43 43 49 48 47 50 53 54 59 62 62 60 60 62
74 60 55 51 55 59 63 63 62 60 55 56 52 49 49 40 41 35 40 46 48 47 49 49 49 49 48 50 50 47 45 45 48 51 52 54 57 59 62 63 64 65 65
77 66 52 50 49 58 63 68 67 66 65 61 55 52 43 44 43 37 39 43 46 47 47 51 50 47 48 49 51 52 51 51 53 53 55 57 61 63 65 65 68 71 74
64 61 59 53 48 52 63 68 73 73 72 68 60 46 44 52 51 51 49 44 46 55 51 51 52 55 57 58 58 57 57 59 61 60 62 65 67 69 72 72 70 72 76
61 61 59 56 54 55 59 64 70 71 72 70 64 57 57 57 59 47 49 53 55 57 58 59 60 58 57 58 58 56 57 57 59 62 67 70 71 70 72 76 78 81 84
49 48 49 50 49 50 53 57 60 63 65 63 63 68 70 68 66 61 59 63 59 60 57 48 57 66 65 61 60 60 62 64 67 66 63 69 72 73 78 79 81 82 84
45 45 46 45 44 46 48 51 53 54 55 60 65 73 78 76 74 70 68 66 70 69 58 61 64 62 64 66 66 70 72 70 68 68 72 74 77 70 75 82 82 83 86

GFSMW_250_spd_123.txt.gz
Wind_Speed
73 68 71 71 68 63 64 60 57 59 61 58 56 54 53 51 49 52 44 42 40 39 38 36 34 39 41 36 36 31 31 34 33 35 35 39 33 28 26 26 27 24 20
73 72 72 69 66 66 65 64 59 61 61 58 54 54 54 50 47 51 48 45 43 42 44 41 39 34 43 40 38 34 33 35 37 35 36 38 33 31 29 27 28 24 23
70 68 68 66 64 62 63 58 57 60 57 59 54 55 45 51 48 46 48 47 47 46 47 44 39 36 40 43 39 36 34 34 39 36 43 44 39 35 28 29 29 24 23
72 71 72 66 61 61 61 58 59 58 53 54 50 44 43 47 47 46 44 46 50 49 46 46 40 40 36 44 41 38 34 37 41 35 40 52 43 43 32 28 28 26 26
81 77 74 67 64 61 57 59 58 56 49 47 47 43 39 42 41 45 48 54 50 53 50 46 43 41 36 44 42 38 33 37 39 38 40 55 53 40 36 31 27 25 23
84 80 79 75 68 63 58 57 59 58 51 49 49 45 44 46 49 51 52 54 52 55 50 44 44 42 37 43 44 39 35 36 41 42 40 48 58 50 44 38 31 27 24
85 80 74 73 69 65 62 61 59 60 53 51 58 61 60 59 60 51 52 53 53 55 52 47 44 42 39 42 44 41 37 36 40 44 43 45 62 56 53 45 39 36 31
79 74 73 72 70 68 67 64 61 54 51 54 58 59 58 55 56 55 51 50 52 53 53 48 45 44 40 41 44 41 38 36 40 39 43 41 49 65 56 52 44 39 34
68 66 68 68 70 72 73 70 70 70 68 68 68 65 64 57 53 51 49 50 53 53 52 47 46 44 40 43 44 43 40 37 38 38 37 32 38 49 55 52 47 43 40
59 59 56 66 68 69 69 70 69 69 67 66 67 60 59 55 51 51 49 49 53 53 51 50 48 45 41 43 45 42 39 39 39 37 40 37 38 43 54 56 52 51 45
55 64 64 64 65 66 67 67 69 67 67 68 66 64 61 57 54 52 52 50 52 55 53 52 47 43 42 43 47 41 41 39 41 40 40 37 36 35 49 59 54 50 50
58 60 63 66 55 63 65 65 67 67 71 71 66 62 62 63 56 54 53 50 53 52 51 47 47 41 43 42 45 45 40 40 43 45 35 35 32 35 41 53 55 53 52
58 58 57 59 64 69 72 72 66 65 67 64 64 62 59 58 55 56 53 50 49 49 48 46 45 38 42 42 42 44 41 41 43 44 32 31 33 34 33 45 53 57 57
60 64 64 54 48 52 58 61 63 64 64 63 62 57 55 56 57 56 53 51 51 49 48 45 40 38 40 40 41 41 41 39 44 45 41 36 36 36 36 36 43 54 57
65 67 63 60 60 63 67 64 63 64 66 63 63 64 57 54 52 53 49 51 49 48 45 41 37 38 39 38 39 36 35 33 44 52 53 48 41 38 40 42 45 48 49
52 55 55 68 57 49 49 48 51 55 59 64 67 67 64 60 55 50 50 52 49 48 44 37 39 40 38 38 35 33 31 34 40 50 52 49 40 39 42 46 50 51 51
54 61 57 53 53 52 51 61 59 60 62 67 64 63 62 63 57 52 50 49 50 48 45 41 41 43 41 39 36 32 33 36 38 42 49 49 43 41 45 52 54 50 52
51 56 72 66 72 67 59 56 58 58 59 61 65 69 67 55 48 47 50 50 51 48 42 41 44 45 43 43 39 33 33 39 41 44 47 45 45 46 47 51 53 53 54
61 65 66 60 65 79 74 68 65 60 46 48 50 48 46 46 47 50 49 48 48 45 41 41 46 45 46 45 43 36 34 32 44 46 49 55 52 51 53 56 55 56 57
64 67 67 58 42 53 70 73 75 60 48 45 48 46 43 47 51 52 49 48 44 40 39 43 47 46 49 48 46 42 38 36 35 45 51 55 58 60 61 63 65 67 70
69 68 67 63 55 55 56 60 60 63 65 59 56 49 46 50 52 51 49 48 43 41 41 43 50 48 50 50 49 47 42 39 40 42 43 45 48 51 53 56 59 61 61
70 69 74 68 63 59 58 56 56 50 57 61 60 55 51 50 48 46 48 41 43 40 39 44 50 52 51 51 48 49 50 48 47 46 49 49 49 49 51 53 56 59 61
81 77 75 72 64 56 59 59 60 60 58 60 64 62 58 55 52 49 49 45 48 41 38 42 39 42 47 51 51 51 49 50 50 50 53 53 56 58 60 59 60 63 67
89 86 81 76 65 59 58 56 48 47 49 56 66 66 63 61 56 53 49 49 50 41 38 42 46 49 49 51 48 49 50 52 54 55 57 59 59 60 60 62 64 68 72
86 86 86 76 68 63 60 59 61 58 57 59 67 71 69 66 62 57 53 59 56 49 46 50 48 47 50 54 57 57 56 60 59 62 66 66 67 69 69 71 75 76 78
70 70 70 65 61 60 62 59 57 56 55 58 64 67 72 71 68 59 58 66 63 58 51 50 47 48 54 54 58 60 64 67 68 66 67 66 68 73 74 73 74 76 79

GFSMW_250_spd_126.txt.gz
Wind_Speed
73 82 84 81 75 64 64 60 60 59 62 61 58 54 53 51 48 50 50 48 42 43 43 44 45 38 36 36 35 33 38 37 33 34 35 32 36 40 37 33 30 25 26
75 78 84 81 78 71 65 61 59 57 60 59 57 53 50 49 50 50 51 48 44 44 44 43 45 45 40 37 36 34 38 39 35 38 35 35 32 38 38 37 34 32 27
71 77 83 83 80 75 67 60 57 55 59 58 58 50 51 47 46 49 48 45 43 46 41 41 44 45 43 39 39 34 38 42 37 35 36 37 34 36 38 40 38 34 29
71 78 83 84 76 75 70 60 57 56 56 57 53 47 44 43 46 46 48 46 46 45 42 39 40 46 46 42 39 36 36 43 40 35 38 37 39 37 40 44 40 39 29
72 79 85 87 80 73 69 62 61 55 53 48 44 49 47 45 44 43 43 44 42 39 38 43 45 51 47 44 37 38 36 41 41 38 36 37 41 36 40 46 45 40 32
71 78 82 84 82 76 71 61 57 50 44 47 52 55 50 46 43 43 45 40 39 43 45 49 45 48 50 44 39 39 36 39 42 39 36 36 38 37 41 49 47 39 39
70 75 78 84 83 77 71 58 56 49 50 53 56 56 53 47 47 47 43 43 45 55 54 50 47 49 49 43 38 39 38 37 43 39 37 36 43 42 40 52 49 44 42
64 67 72 74 76 73 71 64 57 57 59 60 57 56 53 50 49 48 50 52 54 56 54 54 50 47 48 43 39 39 40 38 42 39 37 35 44 45 48 42 60 52 44
59 64 69 73 74 71 69 68 67 67 66 64 61 58 58 54 55 55 48 52 53 54 52 49 50 47 48 42 40 39 41 39 40 42 38 37 41 45 47 45 49 58 56
41 62 68 69 73 71 69 67 69 66 68 67 66 61 58 55 53 54 57 57 53 50 48 49 49 48 46 42 42 42 40 39 41 43 40 36 38 43 41 40 42 51 57
38 49 54 63 67 65 72 72 72 70 70 68 67 64 63 63 62 61 58 58 53 48 47 50 51 49 46 45 46 44 39 39 42 43 42 37 37 42 42 43 45 43 48
37 48 54 58 63 64 72 68 70 71 70 69 66 66 67 65 61 59 62 58 58 54 51 51 51 50 47 47 45 42 40 41 44 40 42 40 38 44 46 45 46 47 47
47 47 55 61 58 58 61 65 66 68 72 71 70 67 65 61 59 59 62 60 59 52 49 51 53 50 47 45 44 42 39 40 43 43 41 42 39 44 40 38 45 44 39
46 50 56 53 59 57 56 59 60 63 63 62 62 61 61 60 60 62 63 61 58 53 54 53 54 46 43 45 45 41 37 39 39 43 45 42 40 44 41 38 38 44 43
47 54 51 47 51 54 57 60 58 52 52 57 59 58 60 61 61 61 61 56 55 54 54 54 53 47 44 42 41 38 36 37 36 34 44 41 39 47 43 35 36 38 43
54 54 57 55 55 58 58 56 54 62 69 72 62 61 64 66 63 62 64 59 55 51 49 52 49 44 41 39 38 36 35 35 33 31 35 36 39 43 40 40 40 40 45
59 51 61 62 60 58 57 58 56 55 56 59 58 61 65 64 63 60 60 53 55 53 51 48 43 44 40 40 36 37 37 36 31 28 32 38 43 46 48 49 49 52 45
54 58 60 56 58 60 65 67 68 70 64 60 61 58 60 61 59 59 58 57 58 58 53 51 44 44 42 40 37 38 38 39 32 29 32 38 38 42 48 52 50 48 47
61 65 60 59 55 60 61 64 70 69 64 53 53 57 55 54 59 64 67 61 57 55 58 49 47 46 45 41 38 42 42 40 36 33 35 42 43 39 43 45 48 49 51
62 63 64 67 63 63 60 56 55 57 58 55 55 61 57 50 48 52 57 57 56 52 47 47 49 46 44 39 38 45 44 45 43 38 38 44 46 48 50 49 51 53 55
77 71 71 73 67 62 64 61 58 58 61 59 59 57 56 58 53 45 44 43 43 45 46 49 45 45 41 40 42 47 47 50 50 44 42 45 50 51 53 53 54 56 59
80 75 68 72 73 63 66 65 66 66 50 68 65 64 64 67 51 49 48 45 45 48 50 48 44 41 39 42 47 50 50 51 49 51 47 47 45 49 54 55 55 56 58
81 79 75 74 74 68 68 57 60 63 49 46 55 59 59 55 61 56 55 48 48 47 49 49 45 45 40 44 50 57 51 50 45 48 51 54 52 52 52 51 53 55 57
86 87 90 85 77 76 69 65 60 58 54 51 51 55 55 50 48 55 59 57 53 53 54 51 49 45 46 46 49 50 54 52 51 48 50 51 50 52 53 54 57 59 61
84 87 86 84 84 79 76 74 69 62 57 55 58 56 56 60 56 57 62 62 61 54 56 54 49 51 51 49 53 48 47 51 50 52 51 53 52 56 59 61 62 63 66
82 84 85 87 82 78 78 76 69 63 62 61 61 59 54 50 46 49 60 67 65 60 57 57 54 60 56 52 53 53 44 53 54 53 57 61 62 66 66 65 67 69 68

GFSMW_250_spd_132.txt.gz
Wind_Speed
83 89 85 85 79 73 67 69 82 83 84 80 77 74 68 71 66 64 59 53 47 44 43 48 44 43 41 38 36 35 32 30 30 28 32 31 28 32 28 28 30 33 34
88 82 87 85 83 76 69 65 78 89 90 84 79 77 74 73 70 63 60 54 52 47 46 46 47 48 43 40 34 33 32 31 32 28 33 34 33 32 33 31 32 32 35
79 82 83 85 87 79 71 65 72 88 92 89 85 79 76 71 67 64 60 60 55 49 49 49 49 49 44 41 36 33 32 31 28 28 32 38 36 32 38 38 35 34 38
68 75 78 85 85 80 75 67 70 83 90 95 89 80 75 71 68 68 64 62 53 50 50 50 49 47 43 41 35 35 31 28 29 32 35 39 40 37 36 43 41 38 37
53 65 68 77 80 78 73 67 70 77 88 95 90 79 76 71 71 68 64 59 53 50 49 48 47 46 43 40 36 36 34 34 34 35 37 39 42 40 39 43 41 42 39
44 54 62 68 68 63 57 55 58 68 80 89 83 75 75 74 69 65 61 53 50 49 48 49 48 47 43 40 39 40 36 36 38 39 41 41 40 39 40 40 41 39 40
38 40 46 54 54 40 48 44 54 63 76 86 78 77 76 71 68 65 58 52 50 48 49 45 47 44 40 38 38 37 36 39 41 47 45 42 40 38 40 38 43 39 37
30 32 37 46 49 44 47 51 61 66 78 86 83 77 75 71 70 64 57 53 50 49 47 49 42 42 40 39 39 38 39 43 44 47 45 43 41 39 38 38 43 42 35
25 27 30 35 40 47 55 55 58 69 82 90 83 74 73 71 70 65 60 54 55 50 49 50 46 42 41 39 39 38 43 44 46 47 44 43 42 39 37 37 43 45 38
23 23 26 33 39 43 46 54 62 67 77 85 80 75 69 67 60 52 53 53 55 50 51 48 45 43 42 39 43 50 45 42 42 42 43 44 43 39 38 36 43 46 42
20 22 19 24 29 40 49 54 58 59 68 77 70 65 64 60 55 47 48 50 55 58 50 45 46 44 45 46 50 54 45 44 43 44 44 46 46 41 40 37 40 49 45
23 26 21 18 28 39 48 54 59 62 64 62 62 62 63 59 63 49 48 51 52 49 44 45 48 49 49 49 53 55 50 47 47 47 47 47 46 42 41 39 40 49 49
29 29 25 17 26 38 46 48 63 64 65 64 66 59 59 65 62 50 49 55 58 55 50 47 50 52 50 53 52 54 56 54 50 51 50 49 51 47 44 42 41 49 51
32 29 33 29 25 34 41 48 55 59 67 74 74 65 59 55 55 56 56 62 68 59 54 51 53 53 52 52 57 55 54 54 53 53 53 50 53 49 47 46 45 49 52
48 37 32 27 32 39 45 49 56 63 73 74 72 70 67 66 67 71 72 67 66 64 57 52 55 58 63 64 61 57 55 54 55 55 55 54 53 49 49 47 46 47 52
53 48 51 53 45 47 51 55 60 64 72 74 74 72 74 73 69 71 74 72 64 64 64 61 57 60 64 66 65 62 60 60 59 58 57 60 58 51 49 47 44 46 50
55 55 53 54 45 47 55 56 60 64 69 73 75 75 77 76 74 73 71 73 73 72 70 70 72 73 73 69 69 73 74 66 58 59 57 61 55 48 45 44 42 45 49
60 59 58 53 51 54 53 53 56 59 65 72 75 78 79 79 79 78 79 78 77 77 76 74 70 78 76 72 67 63 63 62 62 62 59 56 49 45 44 44 43 45 43
66 60 57 59 63 60 54 47 47 52 60 64 69 75 76 77 79 78 79 84 83 82 80 78 77 78 77 73 76 72 69 68 67 62 57 50 49 45 43 45 44 45 43
72 68 63 59 57 52 55 55 56 55 57 59 64 65 67 74 75 73 74 79 81 78 80 81 80 75 73 70 70 69 70 69 68 64 56 52 52 46 45 47 46 43 42
76 75 69 67 61 60 63 56 60 61 60 61 61 60 57 58 62 67 66 69 70 71 75 76 77 79 73 72 70 68 66 65 60 55 54 51 55 48 44 51 50 47 45
80 76 76 73 69 59 59 65 65 60 60 61 60 61 64 61 60 61 66 65 67 69 70 72 72 72 70 70 68 59 56 64 69 69 63 58 58 54 48 51 55 51 49
75 85 81 77 72 67 67 68 66 60 63 61 58 59 58 62 62 63 66 66 65 66 66 71 74 73 66 62 62 61 62 57 58 57 59 61 59 56 53 55 60 56 55
78 75 80 80 77 75 71 72 66 59 56 59 63 64 64 66 67 67 67 68 68 67 70 69 73 73 73 72 66 68 63 55 51 53 54 56 60 59 57 58 61 58 59
81 79 79 78 76 76 73 71 68 62 61 58 60 63 63 64 62 62 62 62 60 60 62 60 57 60 69 70 70 64 60 55 51 56 56 58 58 59 59 59 61 58 60
87 85 84 81 81 77 74 69 70 71 68 65 61 59 55 60 59 58 54 51 53 58 61 63 61 61 57 62 67 57 53 57 57 60 60 60 59 61 59 59 56 56 57